Observation data for Lesley on 05/25/2019      Previous  Date  Next       Current Mesonet Observations  Soil Data  Daily Summary Page  Observations in Plain Language
KLE1 250500Z 11016KT 18/16 A2993 RMK A01 T01810159  RH  087%=      5-min Rain = 0
KLE1 250501Z 10016KT 18/16 A2993 RMK A01 T01810159  RH  087%=      5-min Rain = 0
KLE1 250502Z 11014KT 18/16 A2992 RMK A01 T01800159  RH  088%=      5-min Rain = 0
KLE1 250503Z 11014KT 18/16 A2993 RMK A01 T01800159  RH  088%=      5-min Rain = 0
KLE1 250504Z 11013KT 18/16 A2993 RMK A01 T01800159  RH  088%=      5-min Rain = 0
KLE1 250505Z 11013KT 18/16 A2993 RMK A01 T01790159  RH  088%=      5-min Rain = 0
KLE1 250506Z 11012KT 18/16 A2993 RMK A01 T01790159  RH  088%=      5-min Rain = 0
KLE1 250507Z 11012KT 18/16 A2993 RMK A01 T01790159  RH  088%=      5-min Rain = 0
KLE1 250508Z 11012KT 18/16 A2993 RMK A01 T01790159  RH  088%=      5-min Rain = 0
KLE1 250509Z 11013KT 18/16 A2993 RMK A01 T01790158  RH  087%=      5-min Rain = 0
KLE1 250510Z 12014KT 18/16 A2992 RMK A01 T01790157  RH  087%=      5-min Rain = 0
KLE1 250511Z 12014KT 18/16 A2992 RMK A01 T01800157  RH  086%=      5-min Rain = 0
KLE1 250512Z 12015KT 18/16 A2992 RMK A01 T01800156  RH  086%=      5-min Rain = 0
KLE1 250513Z 13014KT 18/16 A2993 RMK A01 T01810156  RH  086%=      5-min Rain = 0
KLE1 250514Z 13014KT 18/16 A2993 RMK A01 T01800157  RH  086%=      5-min Rain = 0
KLE1 250515Z 13013KT 18/16 A2993 RMK A01 T01800157  RH  086%=      5-min Rain = 0
KLE1 250516Z 14014KT 18/16 A2993 RMK A01 T01790157  RH  087%=      5-min Rain = 0
KLE1 250517Z 14015KT 18/16 A2993 RMK A01 T01790157  RH  087%=      5-min Rain = 0
KLE1 250518Z 14015KT 18/16 A2993 RMK A01 T01790156  RH  087%=      5-min Rain = 0
KLE1 250519Z 13016KT 18/16 A2993 RMK A01 T01790156  RH  086%=      5-min Rain = 0
KLE1 250520Z 13016KT 18/16 A2993 RMK A01 T01790156  RH  086%=      5-min Rain = 0
KLE1 250521Z 13015KT 18/16 A2993 RMK A01 T01790155  RH  086%=      5-min Rain = 0
KLE1 250522Z 14016KT 18/16 A2993 RMK A01 T01790156  RH  086%=      5-min Rain = 0
KLE1 250523Z 13017KT 18/16 A2993 RMK A01 T01780155  RH  086%=      5-min Rain = 0
KLE1 250524Z 13016KT 18/16 A2993 RMK A01 T01780155  RH  086%=      5-min Rain = 0
KLE1 250525Z 14016KT 18/16 A2993 RMK A01 T01780155  RH  086%=      5-min Rain = 0
KLE1 250526Z 14016KT 18/16 A2993 RMK A01 T01780155  RH  086%=      5-min Rain = 0.01
KLE1 250527Z 14015KT 18/16 A2993 RMK A01 T01780155  RH  086%=      5-min Rain = 0
KLE1 250528Z 14014KT 18/16 A2994 RMK A01 T01780155  RH  087%=      5-min Rain = 0
KLE1 250529Z 14014KT 18/16 A2994 RMK A01 T01780156  RH  087%=      5-min Rain = 0
KLE1 250530Z 14013KT 18/16 A2994 RMK A01 T01780155  RH  087%=      5-min Rain = 0
KLE1 250531Z 13012KT 18/16 A2994 RMK A01 T01770156  RH  087%=      5-min Rain = 0
KLE1 250532Z 13013KT 18/16 A2994 RMK A01 T01770155  RH  087%=      5-min Rain = 0
KLE1 250533Z 13012KT 18/16 A2994 RMK A01 T01770155  RH  087%=      5-min Rain = 0
KLE1 250534Z 14012KT 18/16 A2994 RMK A01 T01770155  RH  087%=      5-min Rain = 0
KLE1 250535Z 13010KT 18/16 A2994 RMK A01 T01770156  RH  087%=      5-min Rain = 0
KLE1 250536Z 13010KT 18/16 A2994 RMK A01 T01760155  RH  087%=      5-min Rain = 0
KLE1 250537Z 13010KT 18/16 A2994 RMK A01 T01770156  RH  088%=      5-min Rain = 0
KLE1 250538Z 13009KT 18/16 A2994 RMK A01 T01760155  RH  088%=      5-min Rain = 0
KLE1 250539Z 13009KT 18/16 A2994 RMK A01 T01760155  RH  088%=      5-min Rain = 0
KLE1 250540Z 13009KT 18/16 A2994 RMK A01 T01760155  RH  088%=      5-min Rain = 0
KLE1 250541Z 13009KT 18/16 A2994 RMK A01 T01750155  RH  088%=      5-min Rain = 0
KLE1 250542Z 13008KT 18/16 A2994 RMK A01 T01750155  RH  088%=      5-min Rain = 0
KLE1 250543Z 13008KT 18/16 A2994 RMK A01 T01760155  RH  088%=      5-min Rain = 0
KLE1 250544Z 13008KT 18/16 A2994 RMK A01 T01750155  RH  088%=      5-min Rain = 0
KLE1 250545Z 13007KT 18/16 A2995 RMK A01 T01760155  RH  088%=      5-min Rain = 0
KLE1 250546Z 13008KT 18/16 A2995 RMK A01 T01760155  RH  088%=      5-min Rain = 0
KLE1 250547Z 13007KT 18/16 A2995 RMK A01 T01760155  RH  088%=      5-min Rain = 0
KLE1 250548Z 13007KT 18/16 A2995 RMK A01 T01760155  RH  088%=      5-min Rain = 0
KLE1 250549Z 14006KT 18/16 A2995 RMK A01 T01760155  RH  088%=      5-min Rain = 0
KLE1 250550Z 13006KT 18/16 A2995 RMK A01 T01760156  RH  088%=      5-min Rain = 0
KLE1 250551Z 13006KT 18/16 A2995 RMK A01 T01750156  RH  088%=      5-min Rain = 0
KLE1 250552Z 14006KT 17/16 A2995 RMK A01 T01740155  RH  088%=      5-min Rain = 0
KLE1 250553Z 14005KT 17/16 A2995 RMK A01 T01740155  RH  089%=      5-min Rain = 0
KLE1 250554Z 14006KT 17/16 A2995 RMK A01 T01740155  RH  089%=      5-min Rain = 0
KLE1 250555Z 13006KT 17/16 A2995 RMK A01 T01730156  RH  089%=      5-min Rain = 0
KLE1 250556Z 13006KT 17/16 A2995 RMK A01 T01730156  RH  089%=      5-min Rain = 0
KLE1 250557Z 14006KT 17/16 A2995 RMK A01 T01730156  RH  090%=      5-min Rain = 0
KLE1 250558Z 14006KT 17/16 A2995 RMK A01 T01730156  RH  090%=      5-min Rain = 0
KLE1 250559Z 14005KT 17/16 A2995 RMK A01 T01720156  RH  090%=      5-min Rain = 0
KLE1 250600Z 14005KT 17/16 A2995 RMK A01 T01720156  RH  090%=      5-min Rain = 0
KLE1 250601Z 14005KT 17/16 A2995 RMK A01 T01720156  RH  090%=      5-min Rain = 0
KLE1 250602Z 14005KT 17/16 A2995 RMK A01 T01720156  RH  091%=      5-min Rain = 0
KLE1 250603Z 14005KT 17/16 A2995 RMK A01 T01710156  RH  091%=      5-min Rain = 0
KLE1 250604Z 14005KT 17/16 A2995 RMK A01 T01710156  RH  091%=      5-min Rain = 0
KLE1 250605Z 13005KT 17/16 A2995 RMK A01 T01700156  RH  091%=      5-min Rain = 0
KLE1 250606Z 13005KT 17/16 A2995 RMK A01 T01700156  RH  091%=      5-min Rain = 0
KLE1 250607Z 13005KT 17/16 A2995 RMK A01 T01700156  RH  091%=      5-min Rain = 0
KLE1 250608Z 13005KT 17/16 A2995 RMK A01 T01700156  RH  092%=      5-min Rain = 0
KLE1 250609Z 13005KT 17/16 A2995 RMK A01 T01700156  RH  092%=      5-min Rain = 0
KLE1 250610Z 13005KT 17/16 A2995 RMK A01 T01700156  RH  092%=      5-min Rain = 0
KLE1 250611Z 13005KT 17/16 A2995 RMK A01 T01700156  RH  092%=      5-min Rain = 0
KLE1 250612Z 13005KT 17/16 A2995 RMK A01 T01700156  RH  092%=      5-min Rain = 0
KLE1 250613Z 13005KT 17/16 A2995 RMK A01 T01700156  RH  092%=      5-min Rain = 0
KLE1 250614Z 13005KT 17/16 A2996 RMK A01 T01700157  RH  092%=      5-min Rain = 0
KLE1 250615Z 13005KT 17/16 A2996 RMK A01 T01700157  RH  092%=      5-min Rain = 0
KLE1 250616Z 13005KT 17/16 A2996 RMK A01 T01700156  RH  092%=      5-min Rain = 0
KLE1 250617Z 13005KT 17/16 A2996 RMK A01 T01690156  RH  092%=      5-min Rain = 0
KLE1 250618Z 13005KT 17/16 A2995 RMK A01 T01690156  RH  092%=      5-min Rain = 0
KLE1 250619Z 12004KT 17/16 A2995 RMK A01 T01700156  RH  092%=      5-min Rain = 0
KLE1 250620Z 12004KT 17/16 A2995 RMK A01 T01700156  RH  092%=      5-min Rain = 0
KLE1 250621Z 11004KT 17/16 A2995 RMK A01 T01700156  RH  092%=      5-min Rain = 0
KLE1 250622Z 12004KT 17/16 A2995 RMK A01 T01690156  RH  092%=      5-min Rain = 0
KLE1 250623Z 12004KT 17/16 A2995 RMK A01 T01700156  RH  092%=      5-min Rain = 0
KLE1 250624Z 12003KT 17/16 A2995 RMK A01 T01700156  RH  092%=      5-min Rain = 0
KLE1 250625Z 12003KT 17/16 A2995 RMK A01 T01700157  RH  092%=      5-min Rain = 0
KLE1 250626Z 12003KT 17/16 A2996 RMK A01 T01710157  RH  091%=      5-min Rain = 0
KLE1 250627Z 12003KT 17/16 A2996 RMK A01 T01710157  RH  091%=      5-min Rain = 0
KLE1 250628Z 12003KT 17/16 A2996 RMK A01 T01720157  RH  091%=      5-min Rain = 0
KLE1 250629Z 11003KT 17/16 A2996 RMK A01 T01720156  RH  090%=      5-min Rain = 0
KLE1 250630Z 11002KT 17/16 A2996 RMK A01 T01720156  RH  090%=      5-min Rain = 0
KLE1 250631Z 09002KT 17/16 A2996 RMK A01 T01730157  RH  090%=      5-min Rain = 0
KLE1 250632Z 09002KT 17/16 A2995 RMK A01 T01730157  RH  090%=      5-min Rain = 0
KLE1 250633Z 09002KT 17/16 A2995 RMK A01 T01730157  RH  090%=      5-min Rain = 0
KLE1 250634Z 08002KT 17/16 A2995 RMK A01 T01730157  RH  090%=      5-min Rain = 0
KLE1 250635Z 07002KT 17/16 A2995 RMK A01 T01730157  RH  090%=      5-min Rain = 0
KLE1 250636Z 07002KT 17/16 A2995 RMK A01 T01730157  RH  090%=      5-min Rain = 0
KLE1 250637Z 05002KT 17/16 A2995 RMK A01 T01720156  RH  091%=      5-min Rain = 0
KLE1 250638Z 04003KT 17/16 A2995 RMK A01 T01710156  RH  091%=      5-min Rain = 0
KLE1 250639Z 05003KT 17/16 A2995 RMK A01 T01700156  RH  091%=      5-min Rain = 0
KLE1 250640Z 05003KT 17/16 A2995 RMK A01 T01690156  RH  092%=      5-min Rain = 0
KLE1 250641Z 05003KT 17/16 A2995 RMK A01 T01690156  RH  092%=      5-min Rain = 0
KLE1 250642Z 05004KT 17/16 A2995 RMK A01 T01690156  RH  092%=      5-min Rain = 0
KLE1 250643Z 05004KT 17/16 A2995 RMK A01 T01690156  RH  092%=      5-min Rain = 0
KLE1 250644Z 05004KT 17/16 A2995 RMK A01 T01700156  RH  092%=      5-min Rain = 0
KLE1 250645Z 04004KT 17/16 A2995 RMK A01 T01700156  RH  092%=      5-min Rain = 0
KLE1 250646Z 04004KT 17/16 A2995 RMK A01 T01700157  RH  092%=      5-min Rain = 0
KLE1 250647Z 04004KT 17/16 A2995 RMK A01 T01710157  RH  092%=      5-min Rain = 0
KLE1 250648Z 06004KT 17/16 A2995 RMK A01 T01700157  RH  092%=      5-min Rain = 0
KLE1 250649Z 05003KT 17/16 A2995 RMK A01 T01700157  RH  092%=      5-min Rain = 0
KLE1 250650Z 05004KT 17/16 A2994 RMK A01 T01700157  RH  092%=      5-min Rain = 0
KLE1 250651Z 06004KT 17/16 A2994 RMK A01 T01700157  RH  092%=      5-min Rain = 0
KLE1 250652Z 06004KT 17/16 A2994 RMK A01 T01700157  RH  092%=      5-min Rain = 0
KLE1 250653Z 07004KT 17/16 A2995 RMK A01 T01700157  RH  092%=      5-min Rain = 0
KLE1 250654Z 07004KT 17/16 A2994 RMK A01 T01700157  RH  092%=      5-min Rain = 0
KLE1 250655Z 07004KT 17/16 A2994 RMK A01 T01720158  RH  092%=      5-min Rain = 0
KLE1 250656Z 08004KT 17/16 A2994 RMK A01 T01730158  RH  091%=      5-min Rain = 0
KLE1 250657Z 08004KT 17/16 A2994 RMK A01 T01730158  RH  091%=      5-min Rain = 0
KLE1 250658Z 08005KT 17/16 A2994 RMK A01 T01730158  RH  091%=      5-min Rain = 0
KLE1 250659Z 08004KT 17/16 A2994 RMK A01 T01730158  RH  091%=      5-min Rain = 0
KLE1 250700Z 08005KT 17/16 A2994 RMK A01 T01730158  RH  091%=      5-min Rain = 0
KLE1 250701Z 08005KT 17/16 A2994 RMK A01 T01730158  RH  091%=      5-min Rain = 0
KLE1 250702Z 09004KT 17/16 A2994 RMK A01 T01730158  RH  091%=      5-min Rain = 0
KLE1 250703Z 09004KT 17/16 A2994 RMK A01 T01730158  RH  091%=      5-min Rain = 0
KLE1 250704Z 08004KT 17/16 A2994 RMK A01 T01730158  RH  091%=      5-min Rain = 0
KLE1 250705Z 08004KT 17/16 A2994 RMK A01 T01730158  RH  091%=      5-min Rain = 0
KLE1 250706Z 07005KT 17/16 A2994 RMK A01 T01730158  RH  091%=      5-min Rain = 0
KLE1 250707Z 07005KT 17/16 A2994 RMK A01 T01720158  RH  091%=      5-min Rain = 0
KLE1 250708Z 07004KT 17/16 A2994 RMK A01 T01720158  RH  091%=      5-min Rain = 0
KLE1 250709Z 08004KT 17/16 A2994 RMK A01 T01720158  RH  091%=      5-min Rain = 0
KLE1 250710Z 08003KT 17/16 A2994 RMK A01 T01720158  RH  092%=      5-min Rain = 0
KLE1 250711Z 09004KT 17/16 A2994 RMK A01 T01720158  RH  092%=      5-min Rain = 0
KLE1 250712Z 08004KT 17/16 A2994 RMK A01 T01720158  RH  092%=      5-min Rain = 0
KLE1 250713Z 09004KT 17/16 A2994 RMK A01 T01730158  RH  091%=      5-min Rain = 0
KLE1 250714Z 10004KT 17/16 A2994 RMK A01 T01730158  RH  091%=      5-min Rain = 0
KLE1 250715Z 09003KT 17/16 A2994 RMK A01 T01730158  RH  091%=      5-min Rain = 0
KLE1 250716Z 10003KT 17/16 A2994 RMK A01 T01730158  RH  091%=      5-min Rain = 0
KLE1 250717Z 11004KT 17/16 A2994 RMK A01 T01730159  RH  091%=      5-min Rain = 0
KLE1 250718Z 11004KT 17/16 A2994 RMK A01 T01730159  RH  091%=      5-min Rain = 0
KLE1 250719Z 10004KT 17/16 A2994 RMK A01 T01740160  RH  091%=      5-min Rain = 0
KLE1 250720Z 12004KT 18/16 A2994 RMK A01 T01750160  RH  091%=      5-min Rain = 0
KLE1 250721Z 12004KT 18/16 A2994 RMK A01 T01750159  RH  091%=      5-min Rain = 0
KLE1 250722Z 12003KT 18/16 A2994 RMK A01 T01750159  RH  091%=      5-min Rain = 0
KLE1 250723Z 12004KT 18/16 A2994 RMK A01 T01750159  RH  091%=      5-min Rain = 0
KLE1 250724Z 12004KT 18/16 A2994 RMK A01 T01750160  RH  091%=      5-min Rain = 0
KLE1 250725Z 12003KT 18/16 A2994 RMK A01 T01750160  RH  091%=      5-min Rain = 0
KLE1 250726Z 12003KT 18/16 A2994 RMK A01 T01750160  RH  091%=      5-min Rain = 0
KLE1 250727Z 13003KT 17/16 A2994 RMK A01 T01740160  RH  091%=      5-min Rain = 0
KLE1 250728Z 13003KT 17/16 A2994 RMK A01 T01740160  RH  091%=      5-min Rain = 0
KLE1 250729Z 12004KT 17/16 A2994 RMK A01 T01740160  RH  091%=      5-min Rain = 0
KLE1 250730Z 12004KT 18/16 A2994 RMK A01 T01750161  RH  092%=      5-min Rain = 0
KLE1 250731Z 12003KT 18/16 A2994 RMK A01 T01750161  RH  092%=      5-min Rain = 0
KLE1 250732Z 11004KT 18/16 A2994 RMK A01 T01750162  RH  092%=      5-min Rain = 0
KLE1 250733Z 11003KT 18/16 A2994 RMK A01 T01760162  RH  092%=      5-min Rain = 0
KLE1 250734Z 13004KT 18/16 A2994 RMK A01 T01760162  RH  091%=      5-min Rain = 0
KLE1 250735Z 12003KT 18/16 A2994 RMK A01 T01770162  RH  091%=      5-min Rain = 0
KLE1 250736Z 12004KT 18/16 A2994 RMK A01 T01780163  RH  091%=      5-min Rain = 0
KLE1 250737Z 13004KT 18/16 A2994 RMK A01 T01780162  RH  091%=      5-min Rain = 0
KLE1 250738Z 12004KT 18/16 A2994 RMK A01 T01780162  RH  091%=      5-min Rain = 0
KLE1 250739Z 12005KT 18/16 A2994 RMK A01 T01780163  RH  091%=      5-min Rain = 0
KLE1 250740Z 12005KT 18/16 A2994 RMK A01 T01780163  RH  091%=      5-min Rain = 0
KLE1 250741Z 13005KT 18/16 A2994 RMK A01 T01780163  RH  091%=      5-min Rain = 0
KLE1 250742Z 13005KT 18/16 A2994 RMK A01 T01780163  RH  091%=      5-min Rain = 0
KLE1 250743Z 13005KT 18/16 A2994 RMK A01 T01770163  RH  091%=      5-min Rain = 0
KLE1 250744Z 13004KT 18/16 A2994 RMK A01 T01770163  RH  091%=      5-min Rain = 0
KLE1 250745Z 12004KT 18/16 A2994 RMK A01 T01770163  RH  091%=      5-min Rain = 0
KLE1 250746Z 13004KT 18/16 A2994 RMK A01 T01760163  RH  092%=      5-min Rain = 0
KLE1 250747Z 12004KT 18/16 A2994 RMK A01 T01760162  RH  092%=      5-min Rain = 0
KLE1 250748Z 13004KT 18/16 A2994 RMK A01 T01760163  RH  092%=      5-min Rain = 0
KLE1 250749Z 12003KT 18/16 A2994 RMK A01 T01750162  RH  092%=      5-min Rain = 0
KLE1 250750Z 11003KT 18/16 A2994 RMK A01 T01750162  RH  092%=      5-min Rain = 0
KLE1 250751Z 11003KT 18/16 A2994 RMK A01 T01750162  RH  092%=      5-min Rain = 0
KLE1 250752Z 11003KT 17/16 A2994 RMK A01 T01740162  RH  092%=      5-min Rain = 0
KLE1 250753Z 10002KT 17/16 A2994 RMK A01 T01740161  RH  092%=      5-min Rain = 0
KLE1 250754Z 11002KT 17/16 A2994 RMK A01 T01730161  RH  093%=      5-min Rain = 0
KLE1 250755Z 11001KT 17/16 A2994 RMK A01 T01730161  RH  093%=      5-min Rain = 0
KLE1 250756Z 10001KT 17/16 A2994 RMK A01 T01730161  RH  093%=      5-min Rain = 0
KLE1 250757Z 09002KT 17/16 A2994 RMK A01 T01730161  RH  093%=      5-min Rain = 0
KLE1 250758Z 06000KT 17/16 A2994 RMK A01 T01730161  RH  093%=      5-min Rain = 0
KLE1 250759Z 11000KT 17/16 A2994 RMK A01 T01730161  RH  093%=      5-min Rain = 0
KLE1 250800Z 00000KT 17/16 A2994 RMK A01 T01730161  RH  093%=      5-min Rain = 0
KLE1 250801Z 00000KT 17/16 A2994 RMK A01 T01730161  RH  093%=      5-min Rain = 0
KLE1 250802Z 12001KT 17/16 A2994 RMK A01 T01730161  RH  093%=      5-min Rain = 0
KLE1 250803Z 08001KT 17/16 A2994 RMK A01 T01720161  RH  093%=      5-min Rain = 0
KLE1 250804Z 07001KT 17/16 A2994 RMK A01 T01720161  RH  093%=      5-min Rain = 0
KLE1 250805Z 07001KT 17/16 A2994 RMK A01 T01720161  RH  093%=      5-min Rain = 0
KLE1 250806Z 06001KT 17/16 A2994 RMK A01 T01720161  RH  093%=      5-min Rain = 0
KLE1 250807Z 04001KT 17/16 A2994 RMK A01 T01730162  RH  093%=      5-min Rain = 0
KLE1 250808Z 08002KT 17/16 A2994 RMK A01 T01730162  RH  093%=      5-min Rain = 0
KLE1 250809Z 08000KT 17/16 A2994 RMK A01 T01740163  RH  093%=      5-min Rain = 0
KLE1 250810Z 09001KT 18/16 A2994 RMK A01 T01750164  RH  093%=      5-min Rain = 0
KLE1 250811Z 05001KT 18/16 A2994 RMK A01 T01750164  RH  093%=      5-min Rain = 0
KLE1 250812Z 02001KT 18/16 A2994 RMK A01 T01750164  RH  093%=      5-min Rain = 0
KLE1 250813Z 06001KT 18/16 A2994 RMK A01 T01760164  RH  093%=      5-min Rain = 0
KLE1 250814Z 09000KT 18/16 A2994 RMK A01 T01760164  RH  093%=      5-min Rain = 0
KLE1 250815Z 06002KT 18/16 A2994 RMK A01 T01760163  RH  093%=      5-min Rain = 0
KLE1 250816Z 08002KT 18/16 A2994 RMK A01 T01760164  RH  093%=      5-min Rain = 0
KLE1 250817Z 07002KT 18/17 A2994 RMK A01 T01770165  RH  093%=      5-min Rain = 0
KLE1 250818Z 06002KT 18/17 A2994 RMK A01 T01770165  RH  093%=      5-min Rain = 0
KLE1 250819Z 08002KT 18/17 A2994 RMK A01 T01770166  RH  093%=      5-min Rain = 0
KLE1 250820Z 10003KT 18/17 A2994 RMK A01 T01770166  RH  093%=      5-min Rain = 0
KLE1 250821Z 11002KT 18/17 A2994 RMK A01 T01780167  RH  093%=      5-min Rain = 0
KLE1 250822Z 11002KT 18/17 A2994 RMK A01 T01780167  RH  093%=      5-min Rain = 0
KLE1 250823Z 11002KT 18/17 A2994 RMK A01 T01790167  RH  093%=      5-min Rain = 0
KLE1 250824Z 10002KT 18/17 A2994 RMK A01 T01790167  RH  093%=      5-min Rain = 0
KLE1 250825Z 10003KT 18/17 A2994 RMK A01 T01790167  RH  093%=      5-min Rain = 0
KLE1 250826Z 11004KT 18/17 A2994 RMK A01 T01790168  RH  093%=      5-min Rain = 0
KLE1 250827Z 11004KT 18/17 A2994 RMK A01 T01790168  RH  093%=      5-min Rain = 0
KLE1 250828Z 12004KT 18/17 A2994 RMK A01 T01790169  RH  094%=      5-min Rain = 0
KLE1 250829Z 11004KT 18/17 A2994 RMK A01 T01790169  RH  094%=      5-min Rain = 0
KLE1 250830Z 12005KT 18/17 A2994 RMK A01 T01790170  RH  094%=      5-min Rain = 0
KLE1 250831Z 12005KT 18/17 A2994 RMK A01 T01800170  RH  094%=      5-min Rain = 0
KLE1 250832Z 12006KT 18/17 A2994 RMK A01 T01790170  RH  094%=      5-min Rain = 0
KLE1 250833Z 11005KT 18/17 A2994 RMK A01 T01790170  RH  094%=      5-min Rain = 0
KLE1 250834Z 11005KT 18/17 A2994 RMK A01 T01800170  RH  094%=      5-min Rain = 0
KLE1 250835Z 11005KT 18/17 A2994 RMK A01 T01800171  RH  094%=      5-min Rain = 0
KLE1 250836Z 11006KT 18/17 A2994 RMK A01 T01800171  RH  094%=      5-min Rain = 0
KLE1 250837Z 12005KT 18/17 A2994 RMK A01 T01800171  RH  095%=      5-min Rain = 0
KLE1 250838Z 12005KT 18/17 A2994 RMK A01 T01800171  RH  095%=      5-min Rain = 0
KLE1 250839Z 12005KT 18/17 A2994 RMK A01 T01800171  RH  095%=      5-min Rain = 0
KLE1 250840Z 13006KT 18/17 A2994 RMK A01 T01800171  RH  095%=      5-min Rain = 0
KLE1 250841Z 13005KT 18/17 A2994 RMK A01 T01800171  RH  095%=      5-min Rain = 0
KLE1 250842Z 13005KT 18/17 A2994 RMK A01 T01800171  RH  095%=      5-min Rain = 0
KLE1 250843Z 14005KT 18/17 A2994 RMK A01 T01800171  RH  095%=      5-min Rain = 0
KLE1 250844Z 13006KT 18/17 A2994 RMK A01 T01800171  RH  095%=      5-min Rain = 0
KLE1 250845Z 14005KT 18/17 A2994 RMK A01 T01800171  RH  095%=      5-min Rain = 0
KLE1 250846Z 14004KT 18/17 A2994 RMK A01 T01800172  RH  095%=      5-min Rain = 0
KLE1 250847Z 13005KT 18/17 A2995 RMK A01 T01810172  RH  095%=      5-min Rain = 0
KLE1 250848Z 14006KT 18/17 A2995 RMK A01 T01810172  RH  095%=      5-min Rain = 0
KLE1 250849Z 13005KT 18/17 A2995 RMK A01 T01810172  RH  095%=      5-min Rain = 0
KLE1 250850Z 14004KT 18/17 A2995 RMK A01 T01810172  RH  095%=      5-min Rain = 0
KLE1 250851Z 14005KT 18/17 A2995 RMK A01 T01810172  RH  095%=      5-min Rain = 0
KLE1 250852Z 13005KT 18/17 A2995 RMK A01 T01800172  RH  095%=      5-min Rain = 0
KLE1 250853Z 13007KT 18/17 A2995 RMK A01 T01800172  RH  095%=      5-min Rain = 0
KLE1 250854Z 14006KT 18/17 A2995 RMK A01 T01810172  RH  095%=      5-min Rain = 0
KLE1 250855Z 13006KT 18/17 A2994 RMK A01 T01810172  RH  095%=      5-min Rain = 0
KLE1 250856Z 13005KT 18/17 A2994 RMK A01 T01810172  RH  095%=      5-min Rain = 0
KLE1 250857Z 13005KT 18/17 A2994 RMK A01 T01810172  RH  095%=      5-min Rain = 0
KLE1 250858Z 13006KT 18/17 A2995 RMK A01 T01810172  RH  095%=      5-min Rain = 0
KLE1 250859Z 12005KT 18/17 A2995 RMK A01 T01810172  RH  095%=      5-min Rain = 0
KLE1 250900Z 13006KT 18/17 A2995 RMK A01 T01810172  RH  095%=      5-min Rain = 0
KLE1 250901Z 13005KT 18/17 A2995 RMK A01 T01810172  RH  095%=      5-min Rain = 0
KLE1 250902Z 13005KT 18/17 A2995 RMK A01 T01810172  RH  095%=      5-min Rain = 0
KLE1 250903Z 13005KT 18/17 A2995 RMK A01 T01810172  RH  095%=      5-min Rain = 0
KLE1 250904Z 13004KT 18/17 A2995 RMK A01 T01810172  RH  095%=      5-min Rain = 0
KLE1 250905Z 13003KT 18/17 A2995 RMK A01 T01810172  RH  095%=      5-min Rain = 0
KLE1 250906Z 13003KT 18/17 A2995 RMK A01 T01800172  RH  095%=      5-min Rain = 0
KLE1 250907Z 12004KT 18/17 A2995 RMK A01 T01800172  RH  095%=      5-min Rain = 0
KLE1 250908Z 13004KT 18/17 A2995 RMK A01 T01800173  RH  095%=      5-min Rain = 0
KLE1 250909Z 13004KT 18/17 A2995 RMK A01 T01800172  RH  095%=      5-min Rain = 0
KLE1 250910Z 13003KT 18/17 A2995 RMK A01 T01800172  RH  095%=      5-min Rain = 0
KLE1 250911Z 13004KT 18/17 A2995 RMK A01 T01800172  RH  095%=      5-min Rain = 0
KLE1 250912Z 13004KT 18/17 A2995 RMK A01 T01800173  RH  095%=      5-min Rain = 0
KLE1 250913Z 12003KT 18/17 A2995 RMK A01 T01800172  RH  095%=      5-min Rain = 0
KLE1 250914Z 13004KT 18/17 A2995 RMK A01 T01790172  RH  095%=      5-min Rain = 0
KLE1 250915Z 13004KT 18/17 A2995 RMK A01 T01800172  RH  095%=      5-min Rain = 0
KLE1 250916Z 14003KT 18/17 A2995 RMK A01 T01800172  RH  095%=      5-min Rain = 0
KLE1 250917Z 13003KT 18/17 A2995 RMK A01 T01800172  RH  095%=      5-min Rain = 0
KLE1 250918Z 12003KT 18/17 A2995 RMK A01 T01800172  RH  095%=      5-min Rain = 0
KLE1 250919Z 14002KT 18/17 A2995 RMK A01 T01800172  RH  095%=      5-min Rain = 0
KLE1 250920Z 15003KT 18/17 A2995 RMK A01 T01800172  RH  095%=      5-min Rain = 0
KLE1 250921Z 14003KT 18/17 A2995 RMK A01 T01800172  RH  095%=      5-min Rain = 0
KLE1 250922Z 13002KT 18/17 A2995 RMK A01 T01800173  RH  096%=      5-min Rain = 0
KLE1 250923Z 14003KT 18/17 A2995 RMK A01 T01800173  RH  096%=      5-min Rain = 0
KLE1 250924Z 16002KT 18/17 A2995 RMK A01 T01800173  RH  096%=      5-min Rain = 0
KLE1 250925Z 13003KT 18/17 A2995 RMK A01 T01790172  RH  096%=      5-min Rain = 0
KLE1 250926Z 13003KT 18/17 A2995 RMK A01 T01790172  RH  096%=      5-min Rain = 0
KLE1 250927Z 12002KT 18/17 A2995 RMK A01 T01790173  RH  096%=      5-min Rain = 0
KLE1 250928Z 12002KT 18/17 A2995 RMK A01 T01790173  RH  096%=      5-min Rain = 0
KLE1 250929Z 13003KT 18/17 A2995 RMK A01 T01790172  RH  096%=      5-min Rain = 0
KLE1 250930Z 14003KT 18/17 A2995 RMK A01 T01790172  RH  096%=      5-min Rain = 0
KLE1 250931Z 14003KT 18/17 A2995 RMK A01 T01790173  RH  096%=      5-min Rain = 0
KLE1 250932Z 15004KT 18/17 A2995 RMK A01 T01790173  RH  096%=      5-min Rain = 0
KLE1 250933Z 17004KT 18/17 A2995 RMK A01 T01800173  RH  096%=      5-min Rain = 0
KLE1 250934Z 15003KT 18/17 A2995 RMK A01 T01790172  RH  096%=      5-min Rain = 0
KLE1 250935Z 14005KT 18/17 A2995 RMK A01 T01790172  RH  096%=      5-min Rain = 0
KLE1 250936Z 12004KT 18/17 A2995 RMK A01 T01790172  RH  096%=      5-min Rain = 0
KLE1 250937Z 14004KT 18/17 A2995 RMK A01 T01790172  RH  096%=      5-min Rain = 0
KLE1 250938Z 14002KT 18/17 A2995 RMK A01 T01800173  RH  096%=      5-min Rain = 0
KLE1 250939Z 12002KT 18/17 A2995 RMK A01 T01800172  RH  096%=      5-min Rain = 0
KLE1 250940Z 12001KT 18/17 A2995 RMK A01 T01800173  RH  096%=      5-min Rain = 0
KLE1 250941Z 11002KT 18/17 A2995 RMK A01 T01800173  RH  096%=      5-min Rain = 0
KLE1 250942Z 10001KT 18/17 A2995 RMK A01 T01800173  RH  096%=      5-min Rain = 0
KLE1 250943Z 10002KT 18/17 A2995 RMK A01 T01800173  RH  096%=      5-min Rain = 0
KLE1 250944Z 13001KT 18/17 A2995 RMK A01 T01800173  RH  096%=      5-min Rain = 0
KLE1 250945Z 11002KT 18/17 A2995 RMK A01 T01800173  RH  096%=      5-min Rain = 0
KLE1 250946Z 10002KT 18/17 A2995 RMK A01 T01800173  RH  096%=      5-min Rain = 0
KLE1 250947Z 11002KT 18/17 A2995 RMK A01 T01800173  RH  096%=      5-min Rain = 0
KLE1 250948Z 11002KT 18/17 A2995 RMK A01 T01800173  RH  096%=      5-min Rain = 0
KLE1 250949Z 10003KT 18/17 A2995 RMK A01 T01800173  RH  096%=      5-min Rain = 0
KLE1 250950Z 09002KT 18/17 A2995 RMK A01 T01800173  RH  096%=      5-min Rain = 0
KLE1 250951Z 09003KT 18/17 A2995 RMK A01 T01800173  RH  096%=      5-min Rain = 0
KLE1 250952Z 09003KT 18/17 A2995 RMK A01 T01800173  RH  096%=      5-min Rain = 0
KLE1 250953Z 08003KT 18/17 A2995 RMK A01 T01800173  RH  096%=      5-min Rain = 0
KLE1 250954Z 08003KT 18/17 A2995 RMK A01 T01800173  RH  096%=      5-min Rain = 0
KLE1 250955Z 08003KT 18/17 A2995 RMK A01 T01800173  RH  096%=      5-min Rain = 0
KLE1 250956Z 07003KT 18/17 A2995 RMK A01 T01800173  RH  096%=      5-min Rain = 0
KLE1 250957Z 09003KT 18/17 A2995 RMK A01 T01800173  RH  096%=      5-min Rain = 0
KLE1 250958Z 08003KT 18/17 A2995 RMK A01 T01800173  RH  096%=      5-min Rain = 0
KLE1 250959Z 08004KT 18/17 A2995 RMK A01 T01800174  RH  096%=      5-min Rain = 0
KLE1 251000Z 08003KT 18/17 A2995 RMK A01 T01800174  RH  096%=      5-min Rain = 0
KLE1 251001Z 09004KT 18/17 A2995 RMK A01 T01800174  RH  096%=      5-min Rain = 0
KLE1 251002Z 09004KT 18/17 A2995 RMK A01 T01800174  RH  096%=      5-min Rain = 0
KLE1 251003Z 09004KT 18/17 A2995 RMK A01 T01800174  RH  097%=      5-min Rain = 0
KLE1 251004Z 09004KT 18/17 A2995 RMK A01 T01800174  RH  097%=      5-min Rain = 0
KLE1 251005Z 09004KT 18/17 A2995 RMK A01 T01800174  RH  097%=      5-min Rain = 0
KLE1 251006Z 10005KT 18/17 A2995 RMK A01 T01800174  RH  097%=      5-min Rain = 0
KLE1 251007Z 10005KT 18/17 A2995 RMK A01 T01790174  RH  097%=      5-min Rain = 0
KLE1 251008Z 10004KT 18/17 A2995 RMK A01 T01790174  RH  097%=      5-min Rain = 0
KLE1 251009Z 09004KT 18/17 A2995 RMK A01 T01790174  RH  097%=      5-min Rain = 0
KLE1 251010Z 09004KT 18/17 A2995 RMK A01 T01790174  RH  097%=      5-min Rain = 0
KLE1 251011Z 10004KT 18/17 A2995 RMK A01 T01790174  RH  097%=      5-min Rain = 0
KLE1 251012Z 10004KT 18/17 A2995 RMK A01 T01790174  RH  097%=      5-min Rain = 0
KLE1 251013Z 10004KT 18/18 A2995 RMK A01 T01790175  RH  097%=      5-min Rain = 0
KLE1 251014Z 10004KT 18/17 A2995 RMK A01 T01790174  RH  097%=      5-min Rain = 0
KLE1 251015Z 10004KT 18/18 A2995 RMK A01 T01790175  RH  097%=      5-min Rain = 0
KLE1 251016Z 11004KT 18/18 A2995 RMK A01 T01790175  RH  097%=      5-min Rain = 0
KLE1 251017Z 11005KT 18/18 A2996 RMK A01 T01790175  RH  097%=      5-min Rain = 0
KLE1 251018Z 11005KT 18/18 A2996 RMK A01 T01790175  RH  097%=      5-min Rain = 0
KLE1 251019Z 11005KT 18/18 A2996 RMK A01 T01790175  RH  097%=      5-min Rain = 0
KLE1 251020Z 11005KT 18/18 A2996 RMK A01 T01790175  RH  097%=      5-min Rain = 0
KLE1 251021Z 11005KT 18/18 A2995 RMK A01 T01790175  RH  097%=      5-min Rain = 0
KLE1 251022Z 11005KT 18/18 A2995 RMK A01 T01790175  RH  097%=      5-min Rain = 0
KLE1 251023Z 10005KT 18/18 A2995 RMK A01 T01790175  RH  097%=      5-min Rain = 0
KLE1 251024Z 10005KT 18/18 A2995 RMK A01 T01790175  RH  097%=      5-min Rain = 0
KLE1 251025Z 10005KT 18/18 A2995 RMK A01 T01790175  RH  097%=      5-min Rain = 0
KLE1 251026Z 10006KT 18/18 A2995 RMK A01 T01790175  RH  097%=      5-min Rain = 0
KLE1 251027Z 10006KT 18/18 A2995 RMK A01 T01790175  RH  097%=      5-min Rain = 0
KLE1 251028Z 10005KT 18/18 A2995 RMK A01 T01790175  RH  097%=      5-min Rain = 0
KLE1 251029Z 10006KT 18/18 A2995 RMK A01 T01790175  RH  097%=      5-min Rain = 0
KLE1 251030Z 10005KT 18/18 A2995 RMK A01 T01800176  RH  097%=      5-min Rain = 0
KLE1 251031Z 10005KT 18/18 A2995 RMK A01 T01800176  RH  097%=      5-min Rain = 0
KLE1 251032Z 10005KT 18/18 A2995 RMK A01 T01800176  RH  097%=      5-min Rain = 0
KLE1 251033Z 10006KT 18/18 A2995 RMK A01 T01800176  RH  097%=      5-min Rain = 0
KLE1 251034Z 10005KT 18/18 A2996 RMK A01 T01800176  RH  097%=      5-min Rain = 0
KLE1 251035Z 10006KT 18/18 A2996 RMK A01 T01800176  RH  098%=      5-min Rain = 0
KLE1 251036Z 10006KT 18/18 A2996 RMK A01 T01800176  RH  098%=      5-min Rain = 0
KLE1 251037Z 10006KT 18/18 A2996 RMK A01 T01800176  RH  098%=      5-min Rain = 0
KLE1 251038Z 10006KT 18/18 A2996 RMK A01 T01800176  RH  098%=      5-min Rain = 0
KLE1 251039Z 10006KT 18/18 A2996 RMK A01 T01800176  RH  098%=      5-min Rain = 0
KLE1 251040Z 10006KT 18/18 A2996 RMK A01 T01800176  RH  098%=      5-min Rain = 0
KLE1 251041Z 09005KT 18/18 A2996 RMK A01 T01800176  RH  098%=      5-min Rain = 0
KLE1 251042Z 09005KT 18/18 A2996 RMK A01 T01800176  RH  098%=      5-min Rain = 0
KLE1 251043Z 09005KT 18/18 A2996 RMK A01 T01800177  RH  098%=      5-min Rain = 0
KLE1 251044Z 09005KT 18/18 A2996 RMK A01 T01800177  RH  098%=      5-min Rain = 0
KLE1 251045Z 09004KT 18/18 A2996 RMK A01 T01800177  RH  098%=      5-min Rain = 0
KLE1 251046Z 09004KT 18/18 A2996 RMK A01 T01800177  RH  098%=      5-min Rain = 0
KLE1 251047Z 09005KT 18/18 A2996 RMK A01 T01800177  RH  098%=      5-min Rain = 0
KLE1 251048Z 09005KT 18/18 A2996 RMK A01 T01800177  RH  098%=      5-min Rain = 0
KLE1 251049Z 09004KT 18/18 A2996 RMK A01 T01800177  RH  098%=      5-min Rain = 0
KLE1 251050Z 09004KT 18/18 A2996 RMK A01 T01800177  RH  098%=      5-min Rain = 0
KLE1 251051Z 08004KT 18/18 A2996 RMK A01 T01800176  RH  098%=      5-min Rain = 0
KLE1 251052Z 08004KT 18/18 A2996 RMK A01 T01800177  RH  098%=      5-min Rain = 0
KLE1 251053Z 08005KT 18/18 A2996 RMK A01 T01800177  RH  098%=      5-min Rain = 0
KLE1 251054Z 08005KT 18/18 A2996 RMK A01 T01800176  RH  098%=      5-min Rain = 0
KLE1 251055Z 08005KT 18/18 A2996 RMK A01 T01800177  RH  098%=      5-min Rain = 0
KLE1 251056Z 08005KT 18/18 A2996 RMK A01 T01800177  RH  098%=      5-min Rain = 0
KLE1 251057Z 08004KT 18/18 A2996 RMK A01 T01800177  RH  098%=      5-min Rain = 0
KLE1 251058Z 08005KT 18/18 A2996 RMK A01 T01800176  RH  098%=      5-min Rain = 0
KLE1 251059Z 08005KT 18/18 A2996 RMK A01 T01800176  RH  098%=      5-min Rain = 0
KLE1 251100Z 09005KT 18/18 A2996 RMK A01 T01800177  RH  098%=      5-min Rain = 0
KLE1 251101Z 09006KT 18/18 A2996 RMK A01 T01800177  RH  098%=      5-min Rain = 0
KLE1 251102Z 09006KT 18/18 A2996 RMK A01 T01800177  RH  098%=      5-min Rain = 0
KLE1 251103Z 09006KT 18/18 A2996 RMK A01 T01800177  RH  098%=      5-min Rain = 0
KLE1 251104Z 09006KT 18/18 A2996 RMK A01 T01800177  RH  098%=      5-min Rain = 0
KLE1 251105Z 09006KT 18/18 A2996 RMK A01 T01800177  RH  098%=      5-min Rain = 0
KLE1 251106Z 09006KT 18/18 A2996 RMK A01 T01800177  RH  098%=      5-min Rain = 0
KLE1 251107Z 09006KT 18/18 A2996 RMK A01 T01800177  RH  098%=      5-min Rain = 0
KLE1 251108Z 09006KT 18/18 A2996 RMK A01 T01800177  RH  098%=      5-min Rain = 0
KLE1 251109Z 09005KT 18/18 A2996 RMK A01 T01810177  RH  098%=      5-min Rain = 0
KLE1 251110Z 09006KT 18/18 A2996 RMK A01 T01810177  RH  098%=      5-min Rain = 0
KLE1 251111Z 09006KT 18/18 A2996 RMK A01 T01810177  RH  098%=      5-min Rain = 0
KLE1 251112Z 09006KT 18/18 A2996 RMK A01 T01810177  RH  098%=      5-min Rain = 0
KLE1 251113Z 09006KT 18/18 A2996 RMK A01 T01810177  RH  098%=      5-min Rain = 0
KLE1 251114Z 09007KT 18/18 A2996 RMK A01 T01810178  RH  098%=      5-min Rain = 0
KLE1 251115Z 09007KT 18/18 A2996 RMK A01 T01810178  RH  098%=      5-min Rain = 0
KLE1 251116Z 09007KT 18/18 A2996 RMK A01 T01810178  RH  098%=      5-min Rain = 0
KLE1 251117Z 09007KT 18/18 A2996 RMK A01 T01810177  RH  098%=      5-min Rain = 0
KLE1 251118Z 10006KT 18/18 A2996 RMK A01 T01810178  RH  098%=      5-min Rain = 0
KLE1 251119Z 10006KT 18/18 A2996 RMK A01 T01810178  RH  098%=      5-min Rain = 0
KLE1 251120Z 10005KT 18/18 A2996 RMK A01 T01810178  RH  098%=      5-min Rain = 0
KLE1 251121Z 10006KT 18/18 A2996 RMK A01 T01810178  RH  098%=      5-min Rain = 0
KLE1 251122Z 10006KT 18/18 A2996 RMK A01 T01820178  RH  098%=      5-min Rain = 0
KLE1 251123Z 10006KT 18/18 A2996 RMK A01 T01810178  RH  098%=      5-min Rain = 0
KLE1 251124Z 10006KT 18/18 A2996 RMK A01 T01820178  RH  098%=      5-min Rain = 0
KLE1 251125Z 10005KT 18/18 A2996 RMK A01 T01810178  RH  098%=      5-min Rain = 0
KLE1 251126Z 09006KT 18/18 A2996 RMK A01 T01820178  RH  098%=      5-min Rain = 0
KLE1 251127Z 09006KT 18/18 A2996 RMK A01 T01810178  RH  098%=      5-min Rain = 0
KLE1 251128Z 10006KT 18/18 A2996 RMK A01 T01820178  RH  098%=      5-min Rain = 0
KLE1 251129Z 09006KT 18/18 A2996 RMK A01 T01820178  RH  098%=      5-min Rain = 0
KLE1 251130Z 09006KT 18/18 A2996 RMK A01 T01820178  RH  098%=      5-min Rain = 0
KLE1 251131Z 09006KT 18/18 A2996 RMK A01 T01820178  RH  098%=      5-min Rain = 0
KLE1 251132Z 09006KT 18/18 A2996 RMK A01 T01820178  RH  098%=      5-min Rain = 0
KLE1 251133Z 09005KT 18/18 A2996 RMK A01 T01820178  RH  098%=      5-min Rain = 0
KLE1 251134Z 09006KT 18/18 A2996 RMK A01 T01820179  RH  098%=      5-min Rain = 0
KLE1 251135Z 09006KT 18/18 A2996 RMK A01 T01820179  RH  098%=      5-min Rain = 0
KLE1 251136Z 09006KT 18/18 A2996 RMK A01 T01820179  RH  098%=      5-min Rain = 0
KLE1 251137Z 09006KT 18/18 A2996 RMK A01 T01820179  RH  098%=      5-min Rain = 0
KLE1 251138Z 09006KT 18/18 A2996 RMK A01 T01820179  RH  098%=      5-min Rain = 0
KLE1 251139Z 09006KT 18/18 A2996 RMK A01 T01820179  RH  098%=      5-min Rain = 0
KLE1 251140Z 09006KT 18/18 A2996 RMK A01 T01820179  RH  098%=      5-min Rain = 0
KLE1 251141Z 09005KT 18/18 A2996 RMK A01 T01820179  RH  098%=      5-min Rain = 0
KLE1 251142Z 09005KT 18/18 A2996 RMK A01 T01820180  RH  098%=      5-min Rain = 0
KLE1 251143Z 09006KT 18/18 A2996 RMK A01 T01820179  RH  098%=      5-min Rain = 0
KLE1 251144Z 10005KT 18/18 A2996 RMK A01 T01830180  RH  098%=      5-min Rain = 0
KLE1 251145Z 10005KT 18/18 A2996 RMK A01 T01820179  RH  098%=      5-min Rain = 0
KLE1 251146Z 10005KT 18/18 A2996 RMK A01 T01820179  RH  098%=      5-min Rain = 0
KLE1 251147Z 10005KT 18/18 A2996 RMK A01 T01820179  RH  098%=      5-min Rain = 0
KLE1 251148Z 10006KT 18/18 A2996 RMK A01 T01830180  RH  098%=      5-min Rain = 0
KLE1 251149Z 10006KT 18/18 A2996 RMK A01 T01830180  RH  098%=      5-min Rain = 0
KLE1 251150Z 10006KT 18/18 A2996 RMK A01 T01830180  RH  098%=      5-min Rain = 0
KLE1 251151Z 10006KT 18/18 A2996 RMK A01 T01830180  RH  098%=      5-min Rain = 0
KLE1 251152Z 11006KT 18/18 A2996 RMK A01 T01830180  RH  098%=      5-min Rain = 0
KLE1 251153Z 11006KT 18/18 A2996 RMK A01 T01830180  RH  098%=      5-min Rain = 0
KLE1 251154Z 11006KT 18/18 A2996 RMK A01 T01830180  RH  098%=      5-min Rain = 0
KLE1 251155Z 11005KT 18/18 A2996 RMK A01 T01830180  RH  098%=      5-min Rain = 0
KLE1 251156Z 11006KT 18/18 A2996 RMK A01 T01830180  RH  098%=      5-min Rain = 0
KLE1 251157Z 11005KT 18/18 A2996 RMK A01 T01830181  RH  098%=      5-min Rain = 0
KLE1 251158Z 11005KT 18/18 A2996 RMK A01 T01830181  RH  098%=      5-min Rain = 0
KLE1 251159Z 11006KT 18/18 A2996 RMK A01 T01840181  RH  098%=      5-min Rain = 0
KLE1 251200Z 11006KT 18/18 A2996 RMK A01 T01840181  RH  098%=      5-min Rain = 0
KLE1 251201Z 11006KT 18/18 A2997 RMK A01 T01840181  RH  098%=      5-min Rain = 0
KLE1 251202Z 11006KT 18/18 A2997 RMK A01 T01840181  RH  098%=      5-min Rain = 0
KLE1 251203Z 11006KT 18/18 A2997 RMK A01 T01840181  RH  098%=      5-min Rain = 0
KLE1 251204Z 11006KT 18/18 A2997 RMK A01 T01840181  RH  098%=      5-min Rain = 0
KLE1 251205Z 11007KT 18/18 A2997 RMK A01 T01840182  RH  098%=      5-min Rain = 0
KLE1 251206Z 11006KT 18/18 A2997 RMK A01 T01840181  RH  098%=      5-min Rain = 0
KLE1 251207Z 11006KT 19/18 A2997 RMK A01 T01850182  RH  098%=      5-min Rain = 0
KLE1 251208Z 11006KT 19/18 A2997 RMK A01 T01850182  RH  098%=      5-min Rain = 0
KLE1 251209Z 11005KT 19/18 A2997 RMK A01 T01850182  RH  098%=      5-min Rain = 0
KLE1 251210Z 11006KT 19/18 A2997 RMK A01 T01850182  RH  098%=      5-min Rain = 0
KLE1 251211Z 11006KT 19/18 A2997 RMK A01 T01850182  RH  098%=      5-min Rain = 0
KLE1 251212Z 11005KT 19/18 A2997 RMK A01 T01850182  RH  098%=      5-min Rain = 0
KLE1 251213Z 11006KT 19/18 A2997 RMK A01 T01850182  RH  098%=      5-min Rain = 0
KLE1 251214Z 11006KT 19/18 A2997 RMK A01 T01850182  RH  098%=      5-min Rain = 0
KLE1 251215Z 11006KT 19/18 A2997 RMK A01 T01850182  RH  098%=      5-min Rain = 0
KLE1 251216Z 11006KT 19/18 A2997 RMK A01 T01850182  RH  098%=      5-min Rain = 0
KLE1 251217Z 11006KT 19/18 A2997 RMK A01 T01850183  RH  098%=      5-min Rain = 0
KLE1 251218Z 11006KT 19/18 A2997 RMK A01 T01860183  RH  098%=      5-min Rain = 0
KLE1 251219Z 11006KT 19/18 A2997 RMK A01 T01860183  RH  098%=      5-min Rain = 0
KLE1 251220Z 11006KT 19/18 A2997 RMK A01 T01860183  RH  098%=      5-min Rain = 0
KLE1 251221Z 11006KT 19/18 A2997 RMK A01 T01860183  RH  098%=      5-min Rain = 0
KLE1 251222Z 10005KT 19/18 A2997 RMK A01 T01860183  RH  098%=      5-min Rain = 0
KLE1 251223Z 11005KT 19/18 A2998 RMK A01 T01860183  RH  098%=      5-min Rain = 0
KLE1 251224Z 10005KT 19/18 A2998 RMK A01 T01860183  RH  098%=      5-min Rain = 0
KLE1 251225Z 11004KT 19/18 A2998 RMK A01 T01870184  RH  098%=      5-min Rain = 0
KLE1 251226Z 11004KT 19/18 A2998 RMK A01 T01870184  RH  098%=      5-min Rain = 0
KLE1 251227Z 10005KT 19/18 A2998 RMK A01 T01870184  RH  098%=      5-min Rain = 0
KLE1 251228Z 11005KT 19/18 A2998 RMK A01 T01870184  RH  098%=      5-min Rain = 0
KLE1 251229Z 10005KT 19/18 A2998 RMK A01 T01870184  RH  098%=      5-min Rain = 0
KLE1 251230Z 10005KT 19/18 A2998 RMK A01 T01870184  RH  098%=      5-min Rain = 0
KLE1 251231Z 11005KT 19/18 A2998 RMK A01 T01870184  RH  098%=      5-min Rain = 0
KLE1 251232Z 11006KT 19/18 A2998 RMK A01 T01870184  RH  098%=      5-min Rain = 0
KLE1 251233Z 10005KT 19/18 A2998 RMK A01 T01870184  RH  098%=      5-min Rain = 0
KLE1 251234Z 11005KT 19/18 A2998 RMK A01 T01870184  RH  098%=      5-min Rain = 0
KLE1 251235Z 11005KT 19/18 A2998 RMK A01 T01870184  RH  098%=      5-min Rain = 0
KLE1 251236Z 11005KT 19/18 A2998 RMK A01 T01870184  RH  098%=      5-min Rain = 0
KLE1 251237Z 11006KT 19/18 A2998 RMK A01 T01880184  RH  098%=      5-min Rain = 0
KLE1 251238Z 11006KT 19/18 A2998 RMK A01 T01880184  RH  098%=      5-min Rain = 0
KLE1 251239Z 11006KT 19/18 A2998 RMK A01 T01880184  RH  098%=      5-min Rain = 0
KLE1 251240Z 10005KT 19/18 A2998 RMK A01 T01870184  RH  098%=      5-min Rain = 0
KLE1 251241Z 11006KT 19/18 A2998 RMK A01 T01880184  RH  098%=      5-min Rain = 0
KLE1 251242Z 11006KT 19/18 A2998 RMK A01 T01880184  RH  098%=      5-min Rain = 0
KLE1 251243Z 10006KT 19/19 A2998 RMK A01 T01880185  RH  098%=      5-min Rain = 0
KLE1 251244Z 10006KT 19/19 A2998 RMK A01 T01880185  RH  098%=      5-min Rain = 0
KLE1 251245Z 10006KT 19/19 A2998 RMK A01 T01880185  RH  098%=      5-min Rain = 0
KLE1 251246Z 11006KT 19/19 A2998 RMK A01 T01880185  RH  098%=      5-min Rain = 0
KLE1 251247Z 10006KT 19/19 A2998 RMK A01 T01880185  RH  098%=      5-min Rain = 0
KLE1 251248Z 11005KT 19/19 A2998 RMK A01 T01880185  RH  098%=      5-min Rain = 0
KLE1 251249Z 11005KT 19/19 A2999 RMK A01 T01890185  RH  098%=      5-min Rain = 0
KLE1 251250Z 10005KT 19/19 A2998 RMK A01 T01890186  RH  098%=      5-min Rain = 0
KLE1 251251Z 10006KT 19/19 A2998 RMK A01 T01890186  RH  098%=      5-min Rain = 0
KLE1 251252Z 10007KT 19/19 A2998 RMK A01 T01890186  RH  098%=      5-min Rain = 0
KLE1 251253Z 11006KT 19/19 A2998 RMK A01 T01890186  RH  098%=      5-min Rain = 0
KLE1 251254Z 11006KT 19/19 A2998 RMK A01 T01890186  RH  098%=      5-min Rain = 0
KLE1 251255Z 10005KT 19/19 A2998 RMK A01 T01890186  RH  098%=      5-min Rain = 0
KLE1 251256Z 11006KT 19/19 A2999 RMK A01 T01900186  RH  098%=      5-min Rain = 0
KLE1 251257Z 11007KT 19/19 A2999 RMK A01 T01900186  RH  098%=      5-min Rain = 0
KLE1 251258Z 11007KT 19/19 A2999 RMK A01 T01900187  RH  098%=      5-min Rain = 0
KLE1 251259Z 11006KT 19/19 A2998 RMK A01 T01900187  RH  098%=      5-min Rain = 0
KLE1 251300Z 12008KT 19/19 A2998 RMK A01 T01910187  RH  098%=      5-min Rain = 0
KLE1 251301Z 12006KT 19/19 A2999 RMK A01 T01910187  RH  098%=      5-min Rain = 0
KLE1 251302Z 12006KT 19/19 A2999 RMK A01 T01910187  RH  098%=      5-min Rain = 0
KLE1 251303Z 11006KT 19/19 A2999 RMK A01 T01910187  RH  098%=      5-min Rain = 0
KLE1 251304Z 11007KT 19/19 A2999 RMK A01 T01910187  RH  097%=      5-min Rain = 0
KLE1 251305Z 12006KT 19/19 A2999 RMK A01 T01910187  RH  097%=      5-min Rain = 0
KLE1 251306Z 12006KT 19/19 A2999 RMK A01 T01910187  RH  098%=      5-min Rain = 0
KLE1 251307Z 12006KT 19/19 A2999 RMK A01 T01910187  RH  098%=      5-min Rain = 0
KLE1 251308Z 12006KT 19/19 A2999 RMK A01 T01910187  RH  098%=      5-min Rain = 0
KLE1 251309Z 12006KT 19/19 A2999 RMK A01 T01910187  RH  098%=      5-min Rain = 0
KLE1 251310Z 13006KT 19/19 A2999 RMK A01 T01910187  RH  098%=      5-min Rain = 0
KLE1 251311Z 12006KT 19/19 A2999 RMK A01 T01910187  RH  097%=      5-min Rain = 0
KLE1 251312Z 12005KT 19/19 A2999 RMK A01 T01910187  RH  097%=      5-min Rain = 0
KLE1 251313Z 11006KT 19/19 A2999 RMK A01 T01910187  RH  097%=      5-min Rain = 0
KLE1 251314Z 12006KT 19/19 A2999 RMK A01 T01910187  RH  098%=      5-min Rain = 0
KLE1 251315Z 11006KT 19/19 A2999 RMK A01 T01910187  RH  097%=      5-min Rain = 0
KLE1 251316Z 11006KT 19/19 A2999 RMK A01 T01920188  RH  098%=      5-min Rain = 0
KLE1 251317Z 12006KT 19/19 A2999 RMK A01 T01920188  RH  098%=      5-min Rain = 0
KLE1 251318Z 12006KT 19/19 A2999 RMK A01 T01920188  RH  098%=      5-min Rain = 0
KLE1 251319Z 12006KT 19/19 A2999 RMK A01 T01930188  RH  097%=      5-min Rain = 0
KLE1 251320Z 10006KT 19/19 A2999 RMK A01 T01930188  RH  097%=      5-min Rain = 0
KLE1 251321Z 11006KT 19/19 A2999 RMK A01 T01920188  RH  097%=      5-min Rain = 0
KLE1 251322Z 11005KT 19/19 A2999 RMK A01 T01930188  RH  097%=      5-min Rain = 0
KLE1 251323Z 11005KT 19/19 A2999 RMK A01 T01930188  RH  097%=      5-min Rain = 0
KLE1 251324Z 10006KT 19/19 A2999 RMK A01 T01920188  RH  097%=      5-min Rain = 0
KLE1 251325Z 11005KT 19/19 A2999 RMK A01 T01930188  RH  097%=      5-min Rain = 0
KLE1 251326Z 12005KT 19/19 A2999 RMK A01 T01920188  RH  097%=      5-min Rain = 0
KLE1 251327Z 12006KT 19/19 A2999 RMK A01 T01920188  RH  097%=      5-min Rain = 0
KLE1 251328Z 12006KT 19/19 A2999 RMK A01 T01930188  RH  097%=      5-min Rain = 0
KLE1 251329Z 12006KT 19/19 A2999 RMK A01 T01930188  RH  097%=      5-min Rain = 0
KLE1 251330Z 12006KT 19/19 A2999 RMK A01 T01930188  RH  097%=      5-min Rain = 0
KLE1 251331Z 11006KT 19/19 A2999 RMK A01 T01920188  RH  097%=      5-min Rain = 0
KLE1 251332Z 12006KT 19/19 A2999 RMK A01 T01920188  RH  097%=      5-min Rain = 0
KLE1 251333Z 12007KT 19/19 A2999 RMK A01 T01930188  RH  097%=      5-min Rain = 0
KLE1 251334Z 12007KT 19/19 A2999 RMK A01 T01930188  RH  097%=      5-min Rain = 0
KLE1 251335Z 12006KT 19/19 A2999 RMK A01 T01930188  RH  097%=      5-min Rain = 0
KLE1 251336Z 12005KT 19/19 A2999 RMK A01 T01920188  RH  097%=      5-min Rain = 0
KLE1 251337Z 11006KT 19/19 A2999 RMK A01 T01930189  RH  097%=      5-min Rain = 0
KLE1 251338Z 12006KT 19/19 A2999 RMK A01 T01930189  RH  097%=      5-min Rain = 0
KLE1 251339Z 11006KT 19/19 A2999 RMK A01 T01930189  RH  097%=      5-min Rain = 0
KLE1 251340Z 12006KT 19/19 A2999 RMK A01 T01930189  RH  097%=      5-min Rain = 0
KLE1 251341Z 12006KT 19/19 A2999 RMK A01 T01930189  RH  097%=      5-min Rain = 0
KLE1 251342Z 12006KT 19/19 A2999 RMK A01 T01930189  RH  097%=      5-min Rain = 0
KLE1 251343Z 12007KT 19/19 A2999 RMK A01 T01930189  RH  097%=      5-min Rain = 0
KLE1 251344Z 12006KT 19/19 A2999 RMK A01 T01930189  RH  097%=      5-min Rain = 0
KLE1 251345Z 11006KT 19/19 A2999 RMK A01 T01930189  RH  097%=      5-min Rain = 0
KLE1 251346Z 12007KT 19/19 A2999 RMK A01 T01930189  RH  097%=      5-min Rain = 0
KLE1 251347Z 12007KT 19/19 A2999 RMK A01 T01930189  RH  097%=      5-min Rain = 0
KLE1 251348Z 12008KT 19/19 A2999 RMK A01 T01930189  RH  097%=      5-min Rain = 0
KLE1 251349Z 12006KT 19/19 A2999 RMK A01 T01930189  RH  097%=      5-min Rain = 0
KLE1 251350Z 12006KT 19/19 A2999 RMK A01 T01940190  RH  097%=      5-min Rain = 0
KLE1 251351Z 12006KT 19/19 A2999 RMK A01 T01940189  RH  097%=      5-min Rain = 0
KLE1 251352Z 12006KT 19/19 A2999 RMK A01 T01940189  RH  097%=      5-min Rain = 0
KLE1 251353Z 12006KT 19/19 A2999 RMK A01 T01940189  RH  097%=      5-min Rain = 0
KLE1 251354Z 12006KT 19/19 A2999 RMK A01 T01940189  RH  097%=      5-min Rain = 0
KLE1 251355Z 12006KT 19/19 A2999 RMK A01 T01940189  RH  097%=      5-min Rain = 0
KLE1 251356Z 12005KT 19/19 A2999 RMK A01 T01940189  RH  097%=      5-min Rain = 0
KLE1 251357Z 12006KT 19/19 A2999 RMK A01 T01940189  RH  097%=      5-min Rain = 0
KLE1 251358Z 12006KT 19/19 A2999 RMK A01 T01940189  RH  097%=      5-min Rain = 0
KLE1 251359Z 13005KT 19/19 A2999 RMK A01 T01940189  RH  097%=      5-min Rain = 0
KLE1 251400Z 13005KT 19/19 A2999 RMK A01 T01940190  RH  097%=      5-min Rain = 0
KLE1 251401Z 13005KT 19/19 A2999 RMK A01 T01940189  RH  097%=      5-min Rain = 0
KLE1 251402Z 13005KT 19/19 A2999 RMK A01 T01940189  RH  097%=      5-min Rain = 0
KLE1 251403Z 13005KT 19/19 A2999 RMK A01 T01940190  RH  097%=      5-min Rain = 0
KLE1 251404Z 13006KT 19/19 A2999 RMK A01 T01940189  RH  097%=      5-min Rain = 0
KLE1 251405Z 13005KT 19/19 A2999 RMK A01 T01940189  RH  097%=      5-min Rain = 0
KLE1 251406Z 14005KT 19/19 A2999 RMK A01 T01940190  RH  097%=      5-min Rain = 0
KLE1 251407Z 14005KT 20/19 A2999 RMK A01 T01950190  RH  097%=      5-min Rain = 0
KLE1 251408Z 13005KT 20/19 A2999 RMK A01 T01950190  RH  097%=      5-min Rain = 0
KLE1 251409Z 13006KT 20/19 A2999 RMK A01 T01950190  RH  097%=      5-min Rain = 0
KLE1 251410Z 13005KT 20/19 A2999 RMK A01 T01950191  RH  097%=      5-min Rain = 0
KLE1 251411Z 13005KT 20/19 A30 RMK A01 T01960191  RH  097%=      5-min Rain = 0
KLE1 251412Z 14006KT 20/19 A30 RMK A01 T01960192  RH  097%=      5-min Rain = 0
KLE1 251413Z 13005KT 20/19 A30 RMK A01 T01960192  RH  097%=      5-min Rain = 0
KLE1 251414Z 13004KT 20/19 A30 RMK A01 T01970192  RH  097%=      5-min Rain = 0
KLE1 251415Z 13004KT 20/19 A30 RMK A01 T01970192  RH  097%=      5-min Rain = 0
KLE1 251416Z 13005KT 20/19 A30 RMK A01 T01980193  RH  097%=      5-min Rain = 0
KLE1 251417Z 13004KT 20/19 A30 RMK A01 T01980193  RH  097%=      5-min Rain = 0
KLE1 251418Z 12004KT 20/19 A30 RMK A01 T01980193  RH  097%=      5-min Rain = 0
KLE1 251419Z 13004KT 20/19 A30 RMK A01 T01990193  RH  097%=      5-min Rain = 0
KLE1 251420Z 12003KT 20/19 A30 RMK A01 T01990193  RH  097%=      5-min Rain = 0
KLE1 251421Z 12004KT 20/19 A30 RMK A01 T01990194  RH  097%=      5-min Rain = 0
KLE1 251422Z 12003KT 20/19 A30 RMK A01 T02000194  RH  097%=      5-min Rain = 0
KLE1 251423Z 12004KT 20/20 A30 RMK A01 T02000195  RH  097%=      5-min Rain = 0
KLE1 251424Z 11004KT 20/20 A30 RMK A01 T02010196  RH  097%=      5-min Rain = 0
KLE1 251425Z 13004KT 20/20 A30 RMK A01 T02010196  RH  097%=      5-min Rain = 0
KLE1 251426Z 13005KT 20/20 A30 RMK A01 T02020196  RH  097%=      5-min Rain = 0
KLE1 251427Z 13004KT 20/20 A30 RMK A01 T02030197  RH  096%=      5-min Rain = 0
KLE1 251428Z 12004KT 20/20 A30 RMK A01 T02030197  RH  096%=      5-min Rain = 0
KLE1 251429Z 13005KT 20/20 A30 RMK A01 T02040197  RH  096%=      5-min Rain = 0
KLE1 251430Z 12004KT 20/20 A30 RMK A01 T02040196  RH  095%=      5-min Rain = 0
KLE1 251431Z 12004KT 20/20 A30 RMK A01 T02040197  RH  095%=      5-min Rain = 0
KLE1 251432Z 13005KT 21/20 A30 RMK A01 T02050197  RH  095%=      5-min Rain = 0
KLE1 251433Z 13005KT 21/20 A30 RMK A01 T02050197  RH  095%=      5-min Rain = 0
KLE1 251434Z 13004KT 21/20 A30 RMK A01 T02050196  RH  095%=      5-min Rain = 0
KLE1 251435Z 12005KT 21/20 A30 RMK A01 T02050196  RH  094%=      5-min Rain = 0
KLE1 251436Z 11006KT 21/20 A30 RMK A01 T02050196  RH  094%=      5-min Rain = 0
KLE1 251437Z 12006KT 21/20 A30 RMK A01 T02060196  RH  094%=      5-min Rain = 0
KLE1 251438Z 12006KT 21/20 A30 RMK A01 T02060196  RH  094%=      5-min Rain = 0
KLE1 251439Z 11006KT 21/20 A30 RMK A01 T02070197  RH  094%=      5-min Rain = 0
KLE1 251440Z 11005KT 21/20 A30 RMK A01 T02070197  RH  094%=      5-min Rain = 0
KLE1 251441Z 11005KT 21/20 A30 RMK A01 T02070198  RH  094%=      5-min Rain = 0
KLE1 251442Z 11004KT 21/20 A30 RMK A01 T02080199  RH  094%=      5-min Rain = 0
KLE1 251443Z 11005KT 21/20 A30 RMK A01 T02080198  RH  094%=      5-min Rain = 0
KLE1 251444Z 12006KT 21/20 A30 RMK A01 T02080198  RH  094%=      5-min Rain = 0
KLE1 251445Z 12006KT 21/20 A30 RMK A01 T02090198  RH  094%=      5-min Rain = 0
KLE1 251446Z 12006KT 21/20 A30 RMK A01 T02090198  RH  093%=      5-min Rain = 0
KLE1 251447Z 12006KT 21/20 A30 RMK A01 T02100198  RH  093%=      5-min Rain = 0
KLE1 251448Z 12004KT 21/20 A30 RMK A01 T02100198  RH  093%=      5-min Rain = 0
KLE1 251449Z 12004KT 21/20 A30 RMK A01 T02100198  RH  093%=      5-min Rain = 0
KLE1 251450Z 13004KT 21/20 A30 RMK A01 T02100199  RH  093%=      5-min Rain = 0
KLE1 251451Z 12005KT 21/20 A30 RMK A01 T02110199  RH  093%=      5-min Rain = 0
KLE1 251452Z 14007KT 21/20 A30 RMK A01 T02110200  RH  093%=      5-min Rain = 0
KLE1 251453Z 14006KT 21/20 A30 RMK A01 T02120199  RH  093%=      5-min Rain = 0
KLE1 251454Z 13006KT 21/20 A30 RMK A01 T02130200  RH  093%=      5-min Rain = 0
KLE1 251455Z 12006KT 21/20 A30 RMK A01 T02130200  RH  092%=      5-min Rain = 0
KLE1 251456Z 13006KT 21/20 A30 RMK A01 T02140200  RH  092%=      5-min Rain = 0
KLE1 251457Z 14005KT 21/20 A30 RMK A01 T02140200  RH  092%=      5-min Rain = 0
KLE1 251458Z 15007KT 22/20 A30 RMK A01 T02150202  RH  092%=      5-min Rain = 0
KLE1 251459Z 15010KT 22/20 A30 RMK A01 T02150200  RH  091%=      5-min Rain = 0
KLE1 251500Z 16008KT 22/20 A30 RMK A01 T02150200  RH  091%=      5-min Rain = 0
KLE1 251501Z 15008KT 22/20 A30 RMK A01 T02160200  RH  091%=      5-min Rain = 0
KLE1 251502Z 16008KT 22/20 A30 RMK A01 T02160201  RH  091%=      5-min Rain = 0
KLE1 251503Z 16009KT 22/20 A30 RMK A01 T02160201  RH  091%=      5-min Rain = 0
KLE1 251504Z 15007KT 22/20 A30 RMK A01 T02170200  RH  090%=      5-min Rain = 0
KLE1 251505Z 16007KT 22/20 A30 RMK A01 T02170200  RH  090%=      5-min Rain = 0
KLE1 251506Z 15007KT 22/20 A30 RMK A01 T02170201  RH  090%=      5-min Rain = 0
KLE1 251507Z 16008KT 22/20 A30 RMK A01 T02170201  RH  091%=      5-min Rain = 0
KLE1 251508Z 17009KT 22/20 A30 RMK A01 T02180203  RH  091%=      5-min Rain = 0
KLE1 251509Z 16010KT 22/20 A30 RMK A01 T02190203  RH  090%=      5-min Rain = 0
KLE1 251510Z 17008KT 22/20 A30 RMK A01 T02200203  RH  090%=      5-min Rain = 0
KLE1 251511Z 17007KT 22/20 A30 RMK A01 T02200202  RH  090%=      5-min Rain = 0
KLE1 251512Z 17009KT 22/20 A30 RMK A01 T02200202  RH  089%=      5-min Rain = 0
KLE1 251513Z 16007KT 22/20 A30 RMK A01 T02210203  RH  089%=      5-min Rain = 0
KLE1 251514Z 15006KT 22/20 A30 RMK A01 T02210204  RH  090%=      5-min Rain = 0
KLE1 251515Z 17009KT 22/20 A30 RMK A01 T02220204  RH  090%=      5-min Rain = 0
KLE1 251516Z 17008KT 22/20 A30 RMK A01 T02220203  RH  089%=      5-min Rain = 0
KLE1 251517Z 18008KT 22/20 A30 RMK A01 T02220204  RH  089%=      5-min Rain = 0
KLE1 251518Z 17009KT 22/21 A30 RMK A01 T02220205  RH  090%=      5-min Rain = 0
KLE1 251519Z 17009KT 22/20 A30 RMK A01 T02230204  RH  089%=      5-min Rain = 0
KLE1 251520Z 17009KT 22/21 A30 RMK A01 T02230205  RH  089%=      5-min Rain = 0
KLE1 251521Z 17011KT 22/21 A30 RMK A01 T02230205  RH  089%=      5-min Rain = 0
KLE1 251522Z 17009KT 22/20 A30 RMK A01 T02240204  RH  088%=      5-min Rain = 0
KLE1 251523Z 17011KT 22/20 A30 RMK A01 T02240204  RH  088%=      5-min Rain = 0
KLE1 251524Z 17011KT 22/20 A30 RMK A01 T02240203  RH  088%=      5-min Rain = 0
KLE1 251525Z 17011KT 23/20 A30 RMK A01 T02250203  RH  088%=      5-min Rain = 0
KLE1 251526Z 17011KT 22/20 A30 RMK A01 T02240203  RH  088%=      5-min Rain = 0
KLE1 251527Z 16011KT 22/20 A30 RMK A01 T02240203  RH  088%=      5-min Rain = 0
KLE1 251528Z 16010KT 22/20 A30 RMK A01 T02240203  RH  088%=      5-min Rain = 0
KLE1 251529Z 16010KT 22/20 A30 RMK A01 T02240203  RH  088%=      5-min Rain = 0
KLE1 251530Z 16009KT 22/20 A30 RMK A01 T02240203  RH  088%=      5-min Rain = 0
KLE1 251531Z 16011KT 23/21 A30 RMK A01 T02250205  RH  088%=      5-min Rain = 0
KLE1 251532Z 17012KT 23/20 A30 RMK A01 T02250203  RH  087%=      5-min Rain = 0
KLE1 251533Z 16010KT 23/20 A30 RMK A01 T02250202  RH  087%=      5-min Rain = 0
KLE1 251534Z 16010KT 23/20 A30 RMK A01 T02250203  RH  087%=      5-min Rain = 0
KLE1 251535Z 16011KT 23/20 A30 RMK A01 T02250204  RH  088%=      5-min Rain = 0
KLE1 251536Z 16011KT 23/20 A30 RMK A01 T02250203  RH  087%=      5-min Rain = 0
KLE1 251537Z 16013KT 23/20 A30 RMK A01 T02250203  RH  087%=      5-min Rain = 0
KLE1 251538Z 16010KT 23/20 A30 RMK A01 T02250202  RH  087%=      5-min Rain = 0
KLE1 251539Z 17008KT 23/20 A30 RMK A01 T02250203  RH  087%=      5-min Rain = 0
KLE1 251540Z 16010KT 23/20 A30 RMK A01 T02250204  RH  088%=      5-min Rain = 0
KLE1 251541Z 17010KT 23/20 A30 RMK A01 T02260204  RH  088%=      5-min Rain = 0
KLE1 251542Z 16010KT 23/21 A30 RMK A01 T02260205  RH  088%=      5-min Rain = 0
KLE1 251543Z 17012KT 23/20 A30 RMK A01 T02260204  RH  088%=      5-min Rain = 0
KLE1 251544Z 16010KT 23/20 A30 RMK A01 T02260204  RH  087%=      5-min Rain = 0
KLE1 251545Z 17010KT 23/20 A30 RMK A01 T02260204  RH  087%=      5-min Rain = 0
KLE1 251546Z 16010KT 23/20 A30 RMK A01 T02270204  RH  087%=      5-min Rain = 0
KLE1 251547Z 16011KT 23/21 A30 RMK A01 T02270205  RH  087%=      5-min Rain = 0
KLE1 251548Z 17010KT 23/21 A30 RMK A01 T02270205  RH  087%=      5-min Rain = 0
KLE1 251549Z 17010KT 23/21 A30 RMK A01 T02270205  RH  087%=      5-min Rain = 0
KLE1 251550Z 16010KT 23/21 A30 RMK A01 T02270206  RH  088%=      5-min Rain = 0
KLE1 251551Z 17010KT 23/21 A30 RMK A01 T02270206  RH  088%=      5-min Rain = 0
KLE1 251552Z 16009KT 23/21 A30 RMK A01 T02270206  RH  088%=      5-min Rain = 0
KLE1 251553Z 16010KT 23/21 A30 RMK A01 T02270207  RH  088%=      5-min Rain = 0
KLE1 251554Z 15010KT 23/21 A30 RMK A01 T02270205  RH  087%=      5-min Rain = 0
KLE1 251555Z 16010KT 23/21 A30 RMK A01 T02270206  RH  088%=      5-min Rain = 0
KLE1 251556Z 16012KT 23/21 A30 RMK A01 T02280205  RH  087%=      5-min Rain = 0
KLE1 251557Z 16011KT 23/21 A30 RMK A01 T02280205  RH  087%=      5-min Rain = 0
KLE1 251558Z 16011KT 23/21 A30 RMK A01 T02280207  RH  088%=      5-min Rain = 0
KLE1 251559Z 16011KT 23/21 A30 RMK A01 T02290206  RH  087%=      5-min Rain = 0
KLE1 251600Z 16012KT 23/21 A30 RMK A01 T02300206  RH  087%=      5-min Rain = 0
KLE1 251601Z 17011KT 23/21 A30 RMK A01 T02300206  RH  086%=      5-min Rain = 0
KLE1 251602Z 16011KT 23/21 A30 RMK A01 T02300206  RH  087%=      5-min Rain = 0
KLE1 251603Z 17010KT 23/21 A30 RMK A01 T02300206  RH  086%=      5-min Rain = 0
KLE1 251604Z 17010KT 23/21 A30 RMK A01 T02310209  RH  087%=      5-min Rain = 0
KLE1 251605Z 17010KT 23/21 A30 RMK A01 T02320210  RH  087%=      5-min Rain = 0
KLE1 251606Z 17010KT 23/21 A30 RMK A01 T02330209  RH  086%=      5-min Rain = 0
KLE1 251607Z 16011KT 23/21 A30 RMK A01 T02340207  RH  085%=      5-min Rain = 0
KLE1 251608Z 16010KT 23/21 A30 RMK A01 T02330207  RH  085%=      5-min Rain = 0
KLE1 251609Z 16010KT 23/21 A30 RMK A01 T02340208  RH  085%=      5-min Rain = 0
KLE1 251610Z 17011KT 23/21 A30 RMK A01 T02340207  RH  085%=      5-min Rain = 0
KLE1 251611Z 17010KT 23/21 A30 RMK A01 T02340206  RH  084%=      5-min Rain = 0
KLE1 251612Z 17010KT 23/21 A30 RMK A01 T02340207  RH  085%=      5-min Rain = 0
KLE1 251613Z 17010KT 23/21 A30 RMK A01 T02340207  RH  085%=      5-min Rain = 0
KLE1 251614Z 17010KT 23/21 A30 RMK A01 T02340207  RH  085%=      5-min Rain = 0
KLE1 251615Z 16010KT 23/21 A30 RMK A01 T02340209  RH  086%=      5-min Rain = 0
KLE1 251616Z 16010KT 24/21 A30 RMK A01 T02350209  RH  085%=      5-min Rain = 0
KLE1 251617Z 15011KT 24/21 A2999 RMK A01 T02360208  RH  084%=      5-min Rain = 0
KLE1 251618Z 16009KT 24/21 A2999 RMK A01 T02370209  RH  084%=      5-min Rain = 0
KLE1 251619Z 16011KT 24/21 A2999 RMK A01 T02380209  RH  084%=      5-min Rain = 0
KLE1 251620Z 16009KT 24/21 A2999 RMK A01 T02380209  RH  084%=      5-min Rain = 0
KLE1 251621Z 16012KT 24/21 A2999 RMK A01 T02400212  RH  084%=      5-min Rain = 0
KLE1 251622Z 16013KT 24/21 A2999 RMK A01 T02410212  RH  084%=      5-min Rain = 0
KLE1 251623Z 16013KT 24/21 A2999 RMK A01 T02420211  RH  083%=      5-min Rain = 0
KLE1 251624Z 16012KT 24/21 A2999 RMK A01 T02410210  RH  082%=      5-min Rain = 0
KLE1 251625Z 16012KT 24/21 A2999 RMK A01 T02400209  RH  083%=      5-min Rain = 0
KLE1 251626Z 16012KT 24/21 A2999 RMK A01 T02390209  RH  083%=      5-min Rain = 0
KLE1 251627Z 17011KT 24/21 A2999 RMK A01 T02390209  RH  083%=      5-min Rain = 0
KLE1 251628Z 16010KT 24/21 A2999 RMK A01 T02390209  RH  083%=      5-min Rain = 0
KLE1 251629Z 15011KT 24/21 A2999 RMK A01 T02390211  RH  084%=      5-min Rain = 0
KLE1 251630Z 15012KT 24/21 A2999 RMK A01 T02390210  RH  084%=      5-min Rain = 0
KLE1 251631Z 15014KT 24/21 A2999 RMK A01 T02400210  RH  083%=      5-min Rain = 0
KLE1 251632Z 16011KT 24/21 A2999 RMK A01 T02400209  RH  083%=      5-min Rain = 0
KLE1 251633Z 16011KT 24/21 A2999 RMK A01 T02400212  RH  084%=      5-min Rain = 0
KLE1 251634Z 15012KT 24/21 A2999 RMK A01 T02420212  RH  083%=      5-min Rain = 0
KLE1 251635Z 15013KT 24/21 A2999 RMK A01 T02420211  RH  083%=      5-min Rain = 0
KLE1 251636Z 17012KT 24/21 A2999 RMK A01 T02430211  RH  082%=      5-min Rain = 0
KLE1 251637Z 17011KT 25/21 A2999 RMK A01 T02450214  RH  083%=      5-min Rain = 0
KLE1 251638Z 17014KT 25/21 A2999 RMK A01 T02470214  RH  082%=      5-min Rain = 0
KLE1 251639Z 17011KT 25/21 A2999 RMK A01 T02480212  RH  081%=      5-min Rain = 0
KLE1 251640Z 17011KT 25/21 A2999 RMK A01 T02480212  RH  081%=      5-min Rain = 0
KLE1 251641Z 16011KT 25/21 A2999 RMK A01 T02480213  RH  081%=      5-min Rain = 0
KLE1 251642Z 15011KT 25/22 A2999 RMK A01 T02500217  RH  082%=      5-min Rain = 0
KLE1 251643Z 15012KT 25/22 A2999 RMK A01 T02520215  RH  080%=      5-min Rain = 0
KLE1 251644Z 15012KT 25/21 A2999 RMK A01 T02530214  RH  079%=      5-min Rain = 0
KLE1 251645Z 17012KT 25/22 A2999 RMK A01 T02530216  RH  080%=      5-min Rain = 0
KLE1 251646Z 16012KT 25/22 A2999 RMK A01 T02540216  RH  079%=      5-min Rain = 0
KLE1 251647Z 16013KT 25/21 A2999 RMK A01 T02530214  RH  079%=      5-min Rain = 0
KLE1 251648Z 16013KT 25/21 A2999 RMK A01 T02520211  RH  078%=      5-min Rain = 0
KLE1 251649Z 16011KT 25/21 A2999 RMK A01 T02500212  RH  080%=      5-min Rain = 0
KLE1 251650Z 17010KT 25/22 A2999 RMK A01 T02500218  RH  082%=      5-min Rain = 0
KLE1 251651Z 16013KT 25/22 A2999 RMK A01 T02510215  RH  080%=      5-min Rain = 0
KLE1 251652Z 16014KT 25/21 A2999 RMK A01 T02500212  RH  079%=      5-min Rain = 0
KLE1 251653Z 16013KT 25/21 A2999 RMK A01 T02490212  RH  080%=      5-min Rain = 0
KLE1 251654Z 16013KT 25/21 A2999 RMK A01 T02480212  RH  080%=      5-min Rain = 0
KLE1 251655Z 16013KT 25/21 A2999 RMK A01 T02470210  RH  080%=      5-min Rain = 0
KLE1 251656Z 16011KT 25/21 A2999 RMK A01 T02460212  RH  081%=      5-min Rain = 0
KLE1 251657Z 17012KT 25/21 A2999 RMK A01 T02470213  RH  081%=      5-min Rain = 0
KLE1 251658Z 17011KT 25/21 A2999 RMK A01 T02480213  RH  081%=      5-min Rain = 0
KLE1 251659Z 17011KT 25/21 A2999 RMK A01 T02480213  RH  081%=      5-min Rain = 0
KLE1 251700Z 17011KT 25/21 A2999 RMK A01 T02480213  RH  081%=      5-min Rain = 0
KLE1 251701Z 16012KT 25/21 A2999 RMK A01 T02470211  RH  080%=      5-min Rain = 0
KLE1 251702Z 16010KT 25/21 A2999 RMK A01 T02460212  RH  081%=      5-min Rain = 0
KLE1 251703Z 16010KT 25/21 A2999 RMK A01 T02460214  RH  082%=      5-min Rain = 0
KLE1 251704Z 16010KT 25/21 A2999 RMK A01 T02460211  RH  081%=      5-min Rain = 0
KLE1 251705Z 16009KT 25/21 A2999 RMK A01 T02460213  RH  082%=      5-min Rain = 0
KLE1 251706Z 16009KT 25/22 A2999 RMK A01 T02460215  RH  083%=      5-min Rain = 0
KLE1 251707Z 15010KT 25/21 A2999 RMK A01 T02470214  RH  082%=      5-min Rain = 0
KLE1 251708Z 16010KT 25/21 A2999 RMK A01 T02480212  RH  080%=      5-min Rain = 0
KLE1 251709Z 15009KT 25/21 A2999 RMK A01 T02470212  RH  081%=      5-min Rain = 0
KLE1 251710Z 15010KT 25/21 A2999 RMK A01 T02480214  RH  081%=      5-min Rain = 0
KLE1 251711Z 16009KT 25/21 A2999 RMK A01 T02480212  RH  081%=      5-min Rain = 0
KLE1 251712Z 16009KT 25/21 A2999 RMK A01 T02480213  RH  081%=      5-min Rain = 0
KLE1 251713Z 16008KT 25/21 A2999 RMK A01 T02480212  RH  080%=      5-min Rain = 0
KLE1 251714Z 15007KT 25/21 A2999 RMK A01 T02480214  RH  082%=      5-min Rain = 0
KLE1 251715Z 14009KT 25/21 A2999 RMK A01 T02480214  RH  081%=      5-min Rain = 0
KLE1 251716Z 15009KT 25/21 A2999 RMK A01 T02490212  RH  080%=      5-min Rain = 0
KLE1 251717Z 16008KT 25/21 A2999 RMK A01 T02480212  RH  080%=      5-min Rain = 0
KLE1 251718Z 16009KT 25/21 A2999 RMK A01 T02470212  RH  081%=      5-min Rain = 0
KLE1 251719Z 16010KT 25/21 A2999 RMK A01 T02470213  RH  081%=      5-min Rain = 0
KLE1 251720Z 17012KT 25/21 A2999 RMK A01 T02470211  RH  080%=      5-min Rain = 0
KLE1 251721Z 17011KT 25/21 A2999 RMK A01 T02470211  RH  081%=      5-min Rain = 0
KLE1 251722Z 17011KT 25/21 A2999 RMK A01 T02470211  RH  080%=      5-min Rain = 0
KLE1 251723Z 17010KT 25/21 A2999 RMK A01 T02470212  RH  081%=      5-min Rain = 0
KLE1 251724Z 17010KT 25/21 A2999 RMK A01 T02480211  RH  080%=      5-min Rain = 0
KLE1 251725Z 16011KT 25/21 A2999 RMK A01 T02480210  RH  080%=      5-min Rain = 0
KLE1 251726Z 16008KT 25/21 A2999 RMK A01 T02470211  RH  080%=      5-min Rain = 0
KLE1 251727Z 16008KT 25/21 A2999 RMK A01 T02470213  RH  081%=      5-min Rain = 0
KLE1 251728Z 16009KT 25/21 A2999 RMK A01 T02470211  RH  081%=      5-min Rain = 0
KLE1 251729Z 17010KT 25/21 A2999 RMK A01 T02470213  RH  081%=      5-min Rain = 0
KLE1 251730Z 16013KT 25/21 A2999 RMK A01 T02470211  RH  080%=      5-min Rain = 0
KLE1 251731Z 17015KT 25/21 A2999 RMK A01 T02470210  RH  080%=      5-min Rain = 0
KLE1 251732Z 17012KT 25/21 A2999 RMK A01 T02470208  RH  079%=      5-min Rain = 0
KLE1 251733Z 17012KT 25/21 A2999 RMK A01 T02470209  RH  079%=      5-min Rain = 0
KLE1 251734Z 17011KT 25/21 A2999 RMK A01 T02470212  RH  081%=      5-min Rain = 0
KLE1 251735Z 17010KT 25/21 A2998 RMK A01 T02490212  RH  080%=      5-min Rain = 0
KLE1 251736Z 17012KT 25/21 A2998 RMK A01 T02500214  RH  080%=      5-min Rain = 0
KLE1 251737Z 17011KT 25/21 A2998 RMK A01 T02510214  RH  080%=      5-min Rain = 0
KLE1 251738Z 17011KT 25/22 A2998 RMK A01 T02520215  RH  080%=      5-min Rain = 0
KLE1 251739Z 16013KT 25/22 A2998 RMK A01 T02520215  RH  080%=      5-min Rain = 0
KLE1 251740Z 15014KT 25/21 A2998 RMK A01 T02520212  RH  078%=      5-min Rain = 0
KLE1 251741Z 15014KT 25/21 A2998 RMK A01 T02510212  RH  079%=      5-min Rain = 0
KLE1 251742Z 16016KT 25/21 A2998 RMK A01 T02510212  RH  079%=      5-min Rain = 0
KLE1 251743Z 16014KT 25/21 A2998 RMK A01 T02510210  RH  078%=      5-min Rain = 0
KLE1 251744Z 16013KT 25/21 A2998 RMK A01 T02510212  RH  079%=      5-min Rain = 0
KLE1 251745Z 15012KT 25/21 A2998 RMK A01 T02510212  RH  079%=      5-min Rain = 0
KLE1 251746Z 16013KT 25/21 A2998 RMK A01 T02520214  RH  080%=      5-min Rain = 0
KLE1 251747Z 16014KT 25/21 A2998 RMK A01 T02530213  RH  079%=      5-min Rain = 0
KLE1 251748Z 16013KT 25/21 A2998 RMK A01 T02530212  RH  078%=      5-min Rain = 0
KLE1 251749Z 16015KT 25/21 A2998 RMK A01 T02540214  RH  078%=      5-min Rain = 0
KLE1 251750Z 17015KT 26/21 A2998 RMK A01 T02550212  RH  077%=      5-min Rain = 0
KLE1 251751Z 16017KT 26/21 A2998 RMK A01 T02550211  RH  076%=      5-min Rain = 0
KLE1 251752Z 16015KT 26/21 A2998 RMK A01 T02550211  RH  076%=      5-min Rain = 0
KLE1 251753Z 16014KT 26/21 A2998 RMK A01 T02560212  RH  077%=      5-min Rain = 0
KLE1 251754Z 16014KT 26/21 A2998 RMK A01 T02560212  RH  076%=      5-min Rain = 0
KLE1 251755Z 16012KT 26/21 A2998 RMK A01 T02570214  RH  077%=      5-min Rain = 0
KLE1 251756Z 17012KT 26/22 A2998 RMK A01 T02570215  RH  077%=      5-min Rain = 0
KLE1 251757Z 16015KT 26/21 A2998 RMK A01 T02570214  RH  077%=      5-min Rain = 0
KLE1 251758Z 16014KT 26/21 A2997 RMK A01 T02570212  RH  076%=      5-min Rain = 0
KLE1 251759Z 17015KT 26/21 A2997 RMK A01 T02560212  RH  077%=      5-min Rain = 0
KLE1 251800Z 17015KT 26/21 A2997 RMK A01 T02560214  RH  078%=      5-min Rain = 0
KLE1 251801Z 16014KT 26/21 A2997 RMK A01 T02560214  RH  078%=      5-min Rain = 0
KLE1 251802Z 17013KT 26/21 A2997 RMK A01 T02560212  RH  077%=      5-min Rain = 0
KLE1 251803Z 18014KT 26/21 A2997 RMK A01 T02560213  RH  077%=      5-min Rain = 0
KLE1 251804Z 17014KT 26/21 A2997 RMK A01 T02560210  RH  076%=      5-min Rain = 0
KLE1 251805Z 17016KT 26/21 A2997 RMK A01 T02560212  RH  077%=      5-min Rain = 0
KLE1 251806Z 17016KT 26/21 A2997 RMK A01 T02570210  RH  075%=      5-min Rain = 0
KLE1 251807Z 17014KT 26/21 A2997 RMK A01 T02570212  RH  076%=      5-min Rain = 0
KLE1 251808Z 16015G20KT 26/21 A2997 RMK A01 T02560212  RH  077%=      5-min Rain = 0
KLE1 251809Z 17017KT 26/21 A2997 RMK A01 T02570211  RH  076%=      5-min Rain = 0
KLE1 251810Z 17018KT 26/21 A2997 RMK A01 T02570211  RH  076%=      5-min Rain = 0
KLE1 251811Z 17018KT 26/21 A2997 RMK A01 T02560210  RH  076%=      5-min Rain = 0
KLE1 251812Z 17017KT 26/21 A2997 RMK A01 T02560210  RH  076%=      5-min Rain = 0
KLE1 251813Z 17015KT 26/21 A2997 RMK A01 T02550211  RH  076%=      5-min Rain = 0
KLE1 251814Z 18015KT 26/21 A2997 RMK A01 T02550211  RH  077%=      5-min Rain = 0
KLE1 251815Z 17013KT 25/21 A2997 RMK A01 T02540213  RH  078%=      5-min Rain = 0
KLE1 251816Z 17012KT 25/21 A2997 RMK A01 T02530214  RH  079%=      5-min Rain = 0
KLE1 251817Z 16016KT 25/21 A2997 RMK A01 T02520213  RH  079%=      5-min Rain = 0
KLE1 251818Z 17016KT 25/21 A2997 RMK A01 T02520209  RH  077%=      5-min Rain = 0
KLE1 251819Z 17016KT 25/21 A2997 RMK A01 T02510210  RH  078%=      5-min Rain = 0
KLE1 251820Z 17018KT 25/21 A2997 RMK A01 T02510209  RH  078%=      5-min Rain = 0
KLE1 251821Z 17018KT 25/21 A2997 RMK A01 T02510210  RH  078%=      5-min Rain = 0
KLE1 251822Z 17016KT 25/21 A2997 RMK A01 T02500210  RH  078%=      5-min Rain = 0
KLE1 251823Z 17015KT 25/21 A2997 RMK A01 T02500209  RH  078%=      5-min Rain = 0
KLE1 251824Z 17013KT 25/21 A2997 RMK A01 T02500211  RH  079%=      5-min Rain = 0
KLE1 251825Z 17012KT 25/21 A2997 RMK A01 T02500212  RH  080%=      5-min Rain = 0
KLE1 251826Z 17013KT 25/21 A2997 RMK A01 T02490211  RH  079%=      5-min Rain = 0
KLE1 251827Z 17014KT 25/21 A2997 RMK A01 T02500211  RH  079%=      5-min Rain = 0
KLE1 251828Z 17015KT 25/21 A2997 RMK A01 T02500211  RH  079%=      5-min Rain = 0
KLE1 251829Z 17014KT 25/21 A2997 RMK A01 T02490211  RH  079%=      5-min Rain = 0
KLE1 251830Z 17014KT 25/21 A2997 RMK A01 T02500211  RH  079%=      5-min Rain = 0
KLE1 251831Z 16014KT 25/21 A2997 RMK A01 T02500212  RH  079%=      5-min Rain = 0
KLE1 251832Z 17013KT 25/21 A2997 RMK A01 T02510212  RH  079%=      5-min Rain = 0
KLE1 251833Z 17014KT 25/21 A2997 RMK A01 T02510211  RH  079%=      5-min Rain = 0
KLE1 251834Z 17013KT 25/21 A2997 RMK A01 T02510211  RH  079%=      5-min Rain = 0
KLE1 251835Z 17013KT 25/21 A2997 RMK A01 T02510213  RH  079%=      5-min Rain = 0
KLE1 251836Z 17017KT 25/21 A2997 RMK A01 T02510212  RH  079%=      5-min Rain = 0
KLE1 251837Z 17015KT 25/21 A2997 RMK A01 T02510211  RH  079%=      5-min Rain = 0
KLE1 251838Z 18015KT 25/21 A2997 RMK A01 T02500211  RH  079%=      5-min Rain = 0
KLE1 251839Z 18014KT 25/21 A2997 RMK A01 T02490210  RH  079%=      5-min Rain = 0
KLE1 251840Z 17014KT 25/21 A2997 RMK A01 T02490212  RH  080%=      5-min Rain = 0
KLE1 251841Z 18016KT 25/21 A2997 RMK A01 T02490211  RH  079%=      5-min Rain = 0
KLE1 251842Z 18018KT 25/21 A2997 RMK A01 T02480209  RH  079%=      5-min Rain = 0
KLE1 251843Z 18015KT 25/21 A2997 RMK A01 T02490208  RH  078%=      5-min Rain = 0
KLE1 251844Z 17014KT 25/21 A2997 RMK A01 T02480210  RH  079%=      5-min Rain = 0
KLE1 251845Z 17015KT 25/21 A2997 RMK A01 T02480211  RH  080%=      5-min Rain = 0
KLE1 251846Z 17012KT 25/21 A2997 RMK A01 T02480210  RH  080%=      5-min Rain = 0
KLE1 251847Z 17012KT 25/21 A2997 RMK A01 T02480212  RH  080%=      5-min Rain = 0
KLE1 251848Z 17012KT 25/21 A2997 RMK A01 T02480213  RH  081%=      5-min Rain = 0
KLE1 251849Z 17010KT 25/21 A2997 RMK A01 T02480213  RH  081%=      5-min Rain = 0
KLE1 251850Z 16010G15KT 25/21 A2997 RMK A01 T02480214  RH  082%=      5-min Rain = 0
KLE1 251851Z 16013KT 25/21 A2996 RMK A01 T02480212  RH  080%=      5-min Rain = 0
KLE1 251852Z 17012KT 25/21 A2996 RMK A01 T02480211  RH  080%=      5-min Rain = 0
KLE1 251853Z 17013KT 25/21 A2996 RMK A01 T02480211  RH  080%=      5-min Rain = 0
KLE1 251854Z 16013KT 25/21 A2996 RMK A01 T02480210  RH  079%=      5-min Rain = 0
KLE1 251855Z 16011KT 25/21 A2996 RMK A01 T02480211  RH  080%=      5-min Rain = 0
KLE1 251856Z 17012KT 25/21 A2996 RMK A01 T02480212  RH  080%=      5-min Rain = 0
KLE1 251857Z 16012KT 25/21 A2996 RMK A01 T02480211  RH  080%=      5-min Rain = 0
KLE1 251858Z 15011KT 25/21 A2996 RMK A01 T02480212  RH  080%=      5-min Rain = 0
KLE1 251859Z 16010KT 25/21 A2996 RMK A01 T02480212  RH  080%=      5-min Rain = 0
KLE1 251900Z 16009KT 25/21 A2996 RMK A01 T02480214  RH  081%=      5-min Rain = 0
KLE1 251901Z 15009KT 25/21 A2996 RMK A01 T02480214  RH  081%=      5-min Rain = 0
KLE1 251902Z 15010KT 25/21 A2996 RMK A01 T02480214  RH  081%=      5-min Rain = 0
KLE1 251903Z 16012KT 25/21 A2996 RMK A01 T02480212  RH  081%=      5-min Rain = 0
KLE1 251904Z 15011KT 25/21 A2996 RMK A01 T02480212  RH  081%=      5-min Rain = 0
KLE1 251905Z 15011KT 25/21 A2996 RMK A01 T02470212  RH  081%=      5-min Rain = 0
KLE1 251906Z 16011KT 25/21 A2996 RMK A01 T02470212  RH  081%=      5-min Rain = 0
KLE1 251907Z 15012KT 25/21 A2996 RMK A01 T02470212  RH  081%=      5-min Rain = 0
KLE1 251908Z 15012KT 25/21 A2996 RMK A01 T02470211  RH  080%=      5-min Rain = 0
KLE1 251909Z 15011KT 25/21 A2996 RMK A01 T02480212  RH  080%=      5-min Rain = 0
KLE1 251910Z 15012KT 25/21 A2996 RMK A01 T02480211  RH  080%=      5-min Rain = 0
KLE1 251911Z 15013KT 25/21 A2995 RMK A01 T02480211  RH  080%=      5-min Rain = 0
KLE1 251912Z 15011KT 25/21 A2995 RMK A01 T02480211  RH  080%=      5-min Rain = 0
KLE1 251913Z 15012KT 25/21 A2995 RMK A01 T02480212  RH  081%=      5-min Rain = 0
KLE1 251914Z 15011KT 25/21 A2995 RMK A01 T02480212  RH  081%=      5-min Rain = 0
KLE1 251915Z 15014KT 25/21 A2995 RMK A01 T02480213  RH  081%=      5-min Rain = 0
KLE1 251916Z 15013KT 25/21 A2995 RMK A01 T02480212  RH  081%=      5-min Rain = 0
KLE1 251917Z 16013KT 25/21 A2995 RMK A01 T02470212  RH  081%=      5-min Rain = 0
KLE1 251918Z 15011KT 25/21 A2995 RMK A01 T02470212  RH  081%=      5-min Rain = 0
KLE1 251919Z 15012KT 25/21 A2995 RMK A01 T02460213  RH  081%=      5-min Rain = 0
KLE1 251920Z 15012KT 25/21 A2995 RMK A01 T02460212  RH  081%=      5-min Rain = 0
KLE1 251921Z 15011KT 25/21 A2995 RMK A01 T02460212  RH  081%=      5-min Rain = 0
KLE1 251922Z 15011KT 25/21 A2995 RMK A01 T02460213  RH  082%=      5-min Rain = 0
KLE1 251923Z 15012KT 25/21 A2995 RMK A01 T02460213  RH  082%=      5-min Rain = 0
KLE1 251924Z 15012KT 25/21 A2995 RMK A01 T02460213  RH  082%=      5-min Rain = 0
KLE1 251925Z 14011KT 25/21 A2995 RMK A01 T02460214  RH  082%=      5-min Rain = 0
KLE1 251926Z 14012KT 25/21 A2995 RMK A01 T02450213  RH  082%=      5-min Rain = 0
KLE1 251927Z 14011KT 25/21 A2995 RMK A01 T02450212  RH  082%=      5-min Rain = 0
KLE1 251928Z 14010KT 24/21 A2994 RMK A01 T02440212  RH  082%=      5-min Rain = 0
KLE1 251929Z 14009KT 25/21 A2994 RMK A01 T02450214  RH  083%=      5-min Rain = 0
KLE1 251930Z 14010KT 24/21 A2994 RMK A01 T02440214  RH  083%=      5-min Rain = 0
KLE1 251931Z 14010KT 25/21 A2994 RMK A01 T02450214  RH  083%=      5-min Rain = 0
KLE1 251932Z 14011KT 24/21 A2994 RMK A01 T02440214  RH  083%=      5-min Rain = 0
KLE1 251933Z 14010KT 24/21 A2994 RMK A01 T02440214  RH  083%=      5-min Rain = 0
KLE1 251934Z 14010KT 24/21 A2994 RMK A01 T02440214  RH  083%=      5-min Rain = 0
KLE1 251935Z 13010KT 24/21 A2994 RMK A01 T02440214  RH  084%=      5-min Rain = 0
KLE1 251936Z 14009KT 24/21 A2994 RMK A01 T02440214  RH  084%=      5-min Rain = 0
KLE1 251937Z 14009KT 24/22 A2994 RMK A01 T02440215  RH  084%=      5-min Rain = 0
KLE1 251938Z 14009KT 24/22 A2995 RMK A01 T02440215  RH  084%=      5-min Rain = 0
KLE1 251939Z 14009KT 24/22 A2995 RMK A01 T02440215  RH  084%=      5-min Rain = 0
KLE1 251940Z 14010KT 24/21 A2995 RMK A01 T02440214  RH  084%=      5-min Rain = 0
KLE1 251941Z 13010KT 24/21 A2995 RMK A01 T02430213  RH  083%=      5-min Rain = 0
KLE1 251942Z 14009KT 24/21 A2995 RMK A01 T02440213  RH  083%=      5-min Rain = 0
KLE1 251943Z 14011KT 24/21 A2995 RMK A01 T02430212  RH  083%=      5-min Rain = 0
KLE1 251944Z 13007KT 24/21 A2995 RMK A01 T02440213  RH  083%=      5-min Rain = 0
KLE1 251945Z 14007KT 24/21 A2995 RMK A01 T02430214  RH  084%=      5-min Rain = 0
KLE1 251946Z 13008KT 24/22 A2995 RMK A01 T02430215  RH  084%=      5-min Rain = 0
KLE1 251947Z 14006KT 24/22 A2995 RMK A01 T02440215  RH  084%=      5-min Rain = 0
KLE1 251948Z 14007KT 24/22 A2995 RMK A01 T02440216  RH  084%=      5-min Rain = 0
KLE1 251949Z 14008KT 24/22 A2995 RMK A01 T02440215  RH  084%=      5-min Rain = 0
KLE1 251950Z 14008KT 24/22 A2995 RMK A01 T02440215  RH  084%=      5-min Rain = 0
KLE1 251951Z 14009KT 24/22 A2995 RMK A01 T02440215  RH  084%=      5-min Rain = 0
KLE1 251952Z 15008KT 24/22 A2995 RMK A01 T02440215  RH  084%=      5-min Rain = 0
KLE1 251953Z 14007KT 25/22 A2994 RMK A01 T02450216  RH  084%=      5-min Rain = 0
KLE1 251954Z 15009KT 25/22 A2994 RMK A01 T02450216  RH  083%=      5-min Rain = 0
KLE1 251955Z 15009KT 25/21 A2994 RMK A01 T02450214  RH  083%=      5-min Rain = 0
KLE1 251956Z 14008KT 25/22 A2994 RMK A01 T02460215  RH  083%=      5-min Rain = 0
KLE1 251957Z 15008KT 25/22 A2993 RMK A01 T02460215  RH  083%=      5-min Rain = 0
KLE1 251958Z 14010KT 25/21 A2993 RMK A01 T02460214  RH  082%=      5-min Rain = 0
KLE1 251959Z 14011KT 25/21 A2993 RMK A01 T02460213  RH  082%=      5-min Rain = 0
KLE1 252000Z 14009KT 25/21 A2993 RMK A01 T02460212  RH  082%=      5-min Rain = 0
KLE1 252001Z 15010KT 25/21 A2993 RMK A01 T02460213  RH  082%=      5-min Rain = 0
KLE1 252002Z 14010KT 25/21 A2993 RMK A01 T02460213  RH  082%=      5-min Rain = 0
KLE1 252003Z 14011KT 25/21 A2993 RMK A01 T02460214  RH  082%=      5-min Rain = 0
KLE1 252004Z 15012KT 25/21 A2992 RMK A01 T02460212  RH  081%=      5-min Rain = 0
KLE1 252005Z 14011KT 25/21 A2993 RMK A01 T02460211  RH  081%=      5-min Rain = 0
KLE1 252006Z 14011KT 25/21 A2993 RMK A01 T02450210  RH  081%=      5-min Rain = 0
KLE1 252007Z 15009KT 25/21 A2993 RMK A01 T02450212  RH  082%=      5-min Rain = 0
KLE1 252008Z 15009KT 24/21 A2993 RMK A01 T02440212  RH  082%=      5-min Rain = 0
KLE1 252009Z 14009KT 25/21 A2993 RMK A01 T02450212  RH  082%=      5-min Rain = 0
KLE1 252010Z 14008KT 24/21 A2993 RMK A01 T02440213  RH  083%=      5-min Rain = 0
KLE1 252011Z 14008KT 24/21 A2993 RMK A01 T02440213  RH  083%=      5-min Rain = 0
KLE1 252012Z 14007KT 24/21 A2993 RMK A01 T02440214  RH  083%=      5-min Rain = 0
KLE1 252013Z 15007KT 24/21 A2992 RMK A01 T02440214  RH  083%=      5-min Rain = 0
KLE1 252014Z 14008KT 24/21 A2992 RMK A01 T02430213  RH  083%=      5-min Rain = 0
KLE1 252015Z 14008KT 24/21 A2992 RMK A01 T02430213  RH  083%=      5-min Rain = 0
KLE1 252016Z 14007KT 24/21 A2992 RMK A01 T02430213  RH  083%=      5-min Rain = 0
KLE1 252017Z 14007KT 24/21 A2992 RMK A01 T02430213  RH  083%=      5-min Rain = 0
KLE1 252018Z 13007KT 24/21 A2992 RMK A01 T02420213  RH  084%=      5-min Rain = 0
KLE1 252019Z 13005KT 24/21 A2992 RMK A01 T02420213  RH  084%=      5-min Rain = 0
KLE1 252020Z 13006KT 24/21 A2992 RMK A01 T02420214  RH  085%=      5-min Rain = 0
KLE1 252021Z 12006KT 24/21 A2992 RMK A01 T02410214  RH  085%=      5-min Rain = 0
KLE1 252022Z 12006KT 24/21 A2992 RMK A01 T02410214  RH  085%=      5-min Rain = 0
KLE1 252023Z 12006KT 24/21 A2992 RMK A01 T02410214  RH  085%=      5-min Rain = 0
KLE1 252024Z 12005KT 24/21 A2992 RMK A01 T02410214  RH  085%=      5-min Rain = 0
KLE1 252025Z 14006KT 24/21 A2992 RMK A01 T02410213  RH  084%=      5-min Rain = 0
KLE1 252026Z 14006KT 24/21 A2993 RMK A01 T02410213  RH  084%=      5-min Rain = 0
KLE1 252027Z 14007KT 24/21 A2993 RMK A01 T02410213  RH  085%=      5-min Rain = 0
KLE1 252028Z 13006KT 24/21 A2993 RMK A01 T02410213  RH  084%=      5-min Rain = 0
KLE1 252029Z 13007KT 24/21 A2993 RMK A01 T02410213  RH  085%=      5-min Rain = 0
KLE1 252030Z 12006KT 24/21 A2993 RMK A01 T02410214  RH  085%=      5-min Rain = 0
KLE1 252031Z 13007KT 24/21 A2992 RMK A01 T02400214  RH  085%=      5-min Rain = 0
KLE1 252032Z 12008KT 24/21 A2992 RMK A01 T02400214  RH  086%=      5-min Rain = 0
KLE1 252033Z 12007KT 24/21 A2992 RMK A01 T02400214  RH  086%=      5-min Rain = 0
KLE1 252034Z 12007KT 24/22 A2992 RMK A01 T02400215  RH  086%=      5-min Rain = 0
KLE1 252035Z 12007KT 24/22 A2992 RMK A01 T02400215  RH  086%=      5-min Rain = 0
KLE1 252036Z 12007KT 24/22 A2993 RMK A01 T02390215  RH  086%=      5-min Rain = 0
KLE1 252037Z 13007KT 24/22 A2993 RMK A01 T02390215  RH  086%=      5-min Rain = 0
KLE1 252038Z 13007KT 24/22 A2993 RMK A01 T02390215  RH  086%=      5-min Rain = 0
KLE1 252039Z 13008KT 24/22 A2993 RMK A01 T02390215  RH  086%=      5-min Rain = 0
KLE1 252040Z 12008KT 24/22 A2993 RMK A01 T02390215  RH  086%=      5-min Rain = 0
KLE1 252041Z 12008KT 24/22 A2992 RMK A01 T02390215  RH  086%=      5-min Rain = 0
KLE1 252042Z 12008KT 24/22 A2992 RMK A01 T02390216  RH  087%=      5-min Rain = 0
KLE1 252043Z 12008KT 24/22 A2991 RMK A01 T02390215  RH  087%=      5-min Rain = 0
KLE1 252044Z 12008KT 24/22 A2991 RMK A01 T02390216  RH  087%=      5-min Rain = 0
KLE1 252045Z 13008KT 24/22 A2991 RMK A01 T02390216  RH  087%=      5-min Rain = 0
KLE1 252046Z 13009KT 24/22 A2991 RMK A01 T02390216  RH  087%=      5-min Rain = 0
KLE1 252047Z 13009KT 24/22 A2991 RMK A01 T02380216  RH  087%=      5-min Rain = 0
KLE1 252048Z 13009KT 24/22 A2991 RMK A01 T02390216  RH  087%=      5-min Rain = 0
KLE1 252049Z 13010KT 24/22 A2991 RMK A01 T02390216  RH  087%=      5-min Rain = 0
KLE1 252050Z 13009KT 24/22 A2991 RMK A01 T02380216  RH  087%=      5-min Rain = 0
KLE1 252051Z 13010KT 24/22 A2991 RMK A01 T02380216  RH  087%=      5-min Rain = 0
KLE1 252052Z 14009KT 24/22 A2991 RMK A01 T02380216  RH  087%=      5-min Rain = 0
KLE1 252053Z 14010KT 24/22 A2991 RMK A01 T02380215  RH  087%=      5-min Rain = 0
KLE1 252054Z 14010KT 24/22 A2991 RMK A01 T02380216  RH  088%=      5-min Rain = 0
KLE1 252055Z 14010KT 24/22 A2991 RMK A01 T02380216  RH  088%=      5-min Rain = 0
KLE1 252056Z 14010KT 24/22 A299 RMK A01 T02370215  RH  088%=      5-min Rain = 0
KLE1 252057Z 14009KT 24/22 A299 RMK A01 T02370215  RH  087%=      5-min Rain = 0
KLE1 252058Z 14010KT 24/22 A299 RMK A01 T02370215  RH  088%=      5-min Rain = 0
KLE1 252059Z 14009KT 24/22 A299 RMK A01 T02370215  RH  088%=      5-min Rain = 0
KLE1 252100Z 14010KT 24/22 A299 RMK A01 T02370216  RH  088%=      5-min Rain = 0
KLE1 252101Z 14010KT 24/22 A299 RMK A01 T02370216  RH  088%=      5-min Rain = 0
KLE1 252102Z 14010KT 24/22 A299 RMK A01 T02370216  RH  088%=      5-min Rain = 0
KLE1 252103Z 14010KT 24/22 A299 RMK A01 T02370216  RH  088%=      5-min Rain = 0
KLE1 252104Z 14010KT 24/22 A299 RMK A01 T02370216  RH  088%=      5-min Rain = 0
KLE1 252105Z 15010KT 24/22 A299 RMK A01 T02370216  RH  088%=      5-min Rain = 0
KLE1 252106Z 15010KT 24/22 A299 RMK A01 T02370216  RH  088%=      5-min Rain = 0
KLE1 252107Z 15010KT 24/22 A299 RMK A01 T02360216  RH  088%=      5-min Rain = 0
KLE1 252108Z 15011KT 24/22 A299 RMK A01 T02360216  RH  089%=      5-min Rain = 0
KLE1 252109Z 15010KT 24/22 A299 RMK A01 T02360216  RH  088%=      5-min Rain = 0
KLE1 252110Z 15011KT 24/22 A299 RMK A01 T02370216  RH  088%=      5-min Rain = 0
KLE1 252111Z 15011KT 24/22 A299 RMK A01 T02370215  RH  088%=      5-min Rain = 0
KLE1 252112Z 15010KT 24/22 A299 RMK A01 T02370215  RH  088%=      5-min Rain = 0
KLE1 252113Z 15012KT 24/22 A299 RMK A01 T02370215  RH  088%=      5-min Rain = 0
KLE1 252114Z 15012KT 24/22 A299 RMK A01 T02370215  RH  088%=      5-min Rain = 0
KLE1 252115Z 16010KT 24/22 A299 RMK A01 T02370215  RH  087%=      5-min Rain = 0
KLE1 252116Z 16011KT 24/22 A299 RMK A01 T02380215  RH  087%=      5-min Rain = 0
KLE1 252117Z 16011KT 24/22 A299 RMK A01 T02370215  RH  087%=      5-min Rain = 0
KLE1 252118Z 16010KT 24/22 A299 RMK A01 T02380215  RH  087%=      5-min Rain = 0
KLE1 252119Z 16010KT 24/22 A299 RMK A01 T02380215  RH  087%=      5-min Rain = 0
KLE1 252120Z 16010KT 24/22 A299 RMK A01 T02380216  RH  088%=      5-min Rain = 0
KLE1 252121Z 17010KT 24/22 A2991 RMK A01 T02380216  RH  088%=      5-min Rain = 0
KLE1 252122Z 17009KT 24/22 A2991 RMK A01 T02370216  RH  088%=      5-min Rain = 0
KLE1 252123Z 17009KT 24/22 A2991 RMK A01 T02370216  RH  088%=      5-min Rain = 0
KLE1 252124Z 17009KT 24/22 A2991 RMK A01 T02370216  RH  088%=      5-min Rain = 0
KLE1 252125Z 18009KT 24/22 A2991 RMK A01 T02370216  RH  088%=      5-min Rain = 0
KLE1 252126Z 18008KT 24/22 A2991 RMK A01 T02370216  RH  088%=      5-min Rain = 0
KLE1 252127Z 18008KT 24/22 A2991 RMK A01 T02380216  RH  088%=      5-min Rain = 0
KLE1 252128Z 17008KT 24/22 A2991 RMK A01 T02370216  RH  088%=      5-min Rain = 0
KLE1 252129Z 17008KT 24/22 A2991 RMK A01 T02370216  RH  088%=      5-min Rain = 0
KLE1 252130Z 18007KT 24/22 A2991 RMK A01 T02370216  RH  088%=      5-min Rain = 0
KLE1 252131Z 18008KT 24/22 A2991 RMK A01 T02370217  RH  088%=      5-min Rain = 0
KLE1 252132Z 18007KT 24/22 A2991 RMK A01 T02370216  RH  088%=      5-min Rain = 0
KLE1 252133Z 18007KT 24/22 A2991 RMK A01 T02370217  RH  089%=      5-min Rain = 0
KLE1 252134Z 19007KT 24/22 A2991 RMK A01 T02360216  RH  089%=      5-min Rain = 0
KLE1 252135Z 19006KT 24/22 A2991 RMK A01 T02360217  RH  089%=      5-min Rain = 0
KLE1 252136Z 20006KT 24/22 A2992 RMK A01 T02360217  RH  089%=      5-min Rain = 0
KLE1 252137Z 21006KT 24/22 A2992 RMK A01 T02350217  RH  090%=      5-min Rain = 0
KLE1 252138Z 21005KT 24/22 A2992 RMK A01 T02350217  RH  090%=      5-min Rain = 0
KLE1 252139Z 22004KT 24/22 A2991 RMK A01 T02350217  RH  090%=      5-min Rain = 0
KLE1 252140Z 23004KT 23/22 A2991 RMK A01 T02340218  RH  090%=      5-min Rain = 0
KLE1 252141Z 23004KT 23/22 A2991 RMK A01 T02330218  RH  091%=      5-min Rain = 0
KLE1 252142Z 23004KT 23/22 A2991 RMK A01 T02330218  RH  091%=      5-min Rain = 0
KLE1 252143Z 23004KT 23/22 A2991 RMK A01 T02330218  RH  091%=      5-min Rain = 0
KLE1 252144Z 23004KT 23/22 A2991 RMK A01 T02320218  RH  091%=      5-min Rain = 0
KLE1 252145Z 23003KT 23/22 A2991 RMK A01 T02320218  RH  092%=      5-min Rain = 0
KLE1 252146Z 22003KT 23/22 A2991 RMK A01 T02320218  RH  092%=      5-min Rain = 0
KLE1 252147Z 21003KT 23/22 A2991 RMK A01 T02320218  RH  092%=      5-min Rain = 0
KLE1 252148Z 20002KT 23/22 A2991 RMK A01 T02330218  RH  092%=      5-min Rain = 0
KLE1 252149Z 20003KT 23/22 A299 RMK A01 T02320218  RH  092%=      5-min Rain = 0
KLE1 252150Z 19003KT 23/22 A299 RMK A01 T02330218  RH  091%=      5-min Rain = 0
KLE1 252151Z 19002KT 23/22 A299 RMK A01 T02340219  RH  091%=      5-min Rain = 0
KLE1 252152Z 19003KT 23/22 A299 RMK A01 T02340219  RH  091%=      5-min Rain = 0
KLE1 252153Z 19004KT 24/22 A299 RMK A01 T02350218  RH  090%=      5-min Rain = 0
KLE1 252154Z 19005KT 24/22 A299 RMK A01 T02370219  RH  090%=      5-min Rain = 0
KLE1 252155Z 19005KT 24/22 A2989 RMK A01 T02380219  RH  089%=      5-min Rain = 0
KLE1 252156Z 19004KT 24/22 A2989 RMK A01 T02400220  RH  089%=      5-min Rain = 0
KLE1 252157Z 19004KT 24/22 A2989 RMK A01 T02400218  RH  088%=      5-min Rain = 0
KLE1 252158Z 18005KT 24/22 A2989 RMK A01 T02400219  RH  088%=      5-min Rain = 0
KLE1 252159Z 19005KT 24/22 A2989 RMK A01 T02410218  RH  087%=      5-min Rain = 0
KLE1 252200Z 19005KT 24/22 A2988 RMK A01 T02410218  RH  087%=      5-min Rain = 0
KLE1 252201Z 19005KT 24/22 A2988 RMK A01 T02420219  RH  087%=      5-min Rain = 0
KLE1 252202Z 20005KT 24/22 A2988 RMK A01 T02420219  RH  087%=      5-min Rain = 0
KLE1 252203Z 20004KT 24/22 A2988 RMK A01 T02420220  RH  088%=      5-min Rain = 0
KLE1 252204Z 21005KT 24/22 A2988 RMK A01 T02420220  RH  088%=      5-min Rain = 0
KLE1 252205Z 21006KT 24/22 A2988 RMK A01 T02420220  RH  087%=      5-min Rain = 0
KLE1 252206Z 21006KT 24/22 A2988 RMK A01 T02420219  RH  087%=      5-min Rain = 0
KLE1 252207Z 22006KT 24/22 A2988 RMK A01 T02420219  RH  087%=      5-min Rain = 0
KLE1 252208Z 22006KT 24/22 A2988 RMK A01 T02420221  RH  088%=      5-min Rain = 0
KLE1 252209Z 23006KT 24/22 A2988 RMK A01 T02430221  RH  088%=      5-min Rain = 0
KLE1 252210Z 22007KT 24/22 A2988 RMK A01 T02430219  RH  087%=      5-min Rain = 0
KLE1 252211Z 22008KT 24/22 A2988 RMK A01 T02430218  RH  086%=      5-min Rain = 0
KLE1 252212Z 23007KT 24/22 A2988 RMK A01 T02430217  RH  085%=      5-min Rain = 0
KLE1 252213Z 23006KT 24/22 A2988 RMK A01 T02440219  RH  086%=      5-min Rain = 0
KLE1 252214Z 24007KT 24/22 A2988 RMK A01 T02430220  RH  087%=      5-min Rain = 0
KLE1 252215Z 26007KT 24/22 A2988 RMK A01 T02430220  RH  087%=      5-min Rain = 0
KLE1 252216Z 26007KT 24/22 A2988 RMK A01 T02430220  RH  087%=      5-min Rain = 0
KLE1 252217Z 27008KT 24/22 A2989 RMK A01 T02420219  RH  087%=      5-min Rain = 0
KLE1 252218Z 27007KT 24/22 A2989 RMK A01 T02410219  RH  088%=      5-min Rain = 0
KLE1 252219Z 27006KT 24/22 A2989 RMK A01 T02400219  RH  088%=      5-min Rain = 0
KLE1 252220Z 27006KT 24/22 A2989 RMK A01 T02400219  RH  088%=      5-min Rain = 0
KLE1 252221Z 27006KT 24/22 A2989 RMK A01 T02390219  RH  089%=      5-min Rain = 0
KLE1 252222Z 27006KT 24/22 A2989 RMK A01 T02380219  RH  089%=      5-min Rain = 0
KLE1 252223Z 28007KT 24/22 A2989 RMK A01 T02380218  RH  089%=      5-min Rain = 0
KLE1 252224Z 28006KT 24/22 A2989 RMK A01 T02370218  RH  089%=      5-min Rain = 0
KLE1 252225Z 28006KT 24/22 A299 RMK A01 T02370218  RH  089%=      5-min Rain = 0
KLE1 252226Z 28006KT 24/22 A299 RMK A01 T02360218  RH  090%=      5-min Rain = 0
KLE1 252227Z 28006KT 24/22 A299 RMK A01 T02350218  RH  090%=      5-min Rain = 0
KLE1 252228Z 28006KT 24/22 A299 RMK A01 T02350218  RH  090%=      5-min Rain = 0
KLE1 252229Z 28007KT 24/22 A299 RMK A01 T02350218  RH  090%=      5-min Rain = 0
KLE1 252230Z 29007KT 23/22 A299 RMK A01 T02340218  RH  090%=      5-min Rain = 0
KLE1 252231Z 29007KT 23/22 A299 RMK A01 T02340217  RH  090%=      5-min Rain = 0
KLE1 252232Z 29006KT 23/22 A299 RMK A01 T02340218  RH  091%=      5-min Rain = 0
KLE1 252233Z 30006KT 23/22 A299 RMK A01 T02330218  RH  091%=      5-min Rain = 0
KLE1 252234Z 30006KT 23/22 A299 RMK A01 T02320218  RH  091%=      5-min Rain = 0
KLE1 252235Z 30006KT 23/22 A299 RMK A01 T02320217  RH  091%=      5-min Rain = 0
KLE1 252236Z 31005KT 23/22 A299 RMK A01 T02310217  RH  092%=      5-min Rain = 0
KLE1 252237Z 31005KT 23/22 A2991 RMK A01 T02310218  RH  092%=      5-min Rain = 0
KLE1 252238Z 30006KT 23/22 A2991 RMK A01 T02310217  RH  092%=      5-min Rain = 0
KLE1 252239Z 31005KT 23/22 A2991 RMK A01 T02300217  RH  092%=      5-min Rain = 0
KLE1 252240Z 31005KT 23/22 A2991 RMK A01 T02300217  RH  092%=      5-min Rain = 0
KLE1 252241Z 31006KT 23/22 A2991 RMK A01 T02300216  RH  092%=      5-min Rain = 0
KLE1 252242Z 31006KT 23/22 A2991 RMK A01 T02300216  RH  092%=      5-min Rain = 0
KLE1 252243Z 31005KT 23/22 A2991 RMK A01 T02300216  RH  092%=      5-min Rain = 0
KLE1 252244Z 31005KT 23/22 A2991 RMK A01 T02290216  RH  092%=      5-min Rain = 0
KLE1 252245Z 32005KT 23/22 A2991 RMK A01 T02290216  RH  092%=      5-min Rain = 0
KLE1 252246Z 32005KT 23/22 A2991 RMK A01 T02290216  RH  092%=      5-min Rain = 0
KLE1 252247Z 33004KT 23/22 A299 RMK A01 T02290216  RH  092%=      5-min Rain = 0
KLE1 252248Z 33005KT 23/22 A299 RMK A01 T02290216  RH  092%=      5-min Rain = 0
KLE1 252249Z 33005KT 23/22 A299 RMK A01 T02290216  RH  092%=      5-min Rain = 0
KLE1 252250Z 33005KT 23/22 A299 RMK A01 T02280215  RH  093%=      5-min Rain = 0
KLE1 252251Z 33005KT 23/22 A299 RMK A01 T02280215  RH  093%=      5-min Rain = 0
KLE1 252252Z 33005KT 23/22 A299 RMK A01 T02280215  RH  093%=      5-min Rain = 0
KLE1 252253Z 33005KT 23/22 A299 RMK A01 T02270215  RH  093%=      5-min Rain = 0
KLE1 252254Z 34005KT 23/22 A299 RMK A01 T02280215  RH  092%=      5-min Rain = 0
KLE1 252255Z 34005KT 23/22 A299 RMK A01 T02280215  RH  092%=      5-min Rain = 0
KLE1 252256Z 34005KT 23/22 A299 RMK A01 T02280215  RH  092%=      5-min Rain = 0
KLE1 252257Z 35006KT 23/22 A2989 RMK A01 T02270215  RH  092%=      5-min Rain = 0
KLE1 252258Z 35006KT 23/22 A2989 RMK A01 T02270215  RH  093%=      5-min Rain = 0
KLE1 252259Z 35006KT 23/21 A2989 RMK A01 T02270214  RH  093%=      5-min Rain = 0
KLE1 252300Z 35005KT 23/22 A2989 RMK A01 T02270215  RH  093%=      5-min Rain = 0
KLE1 252301Z 34004KT 23/21 A2989 RMK A01 T02270214  RH  093%=      5-min Rain = 0
KLE1 252302Z 34004KT 23/21 A2989 RMK A01 T02270214  RH  092%=      5-min Rain = 0
KLE1 252303Z 33004KT 23/21 A299 RMK A01 T02260213  RH  092%=      5-min Rain = 0
KLE1 252304Z 33005KT 23/21 A2989 RMK A01 T02270214  RH  092%=      5-min Rain = 0
KLE1 252305Z 34004KT 23/21 A2989 RMK A01 T02270213  RH  092%=      5-min Rain = 0
KLE1 252306Z 33004KT 23/21 A2989 RMK A01 T02280214  RH  092%=      5-min Rain = 0
KLE1 252307Z 32004KT 23/21 A2989 RMK A01 T02270214  RH  092%=      5-min Rain = 0
KLE1 252308Z 32004KT 23/21 A2989 RMK A01 T02270214  RH  092%=      5-min Rain = 0
KLE1 252309Z 32005KT 23/21 A2989 RMK A01 T02270214  RH  093%=      5-min Rain = 0
KLE1 252310Z 32004KT 23/21 A2989 RMK A01 T02260214  RH  093%=      5-min Rain = 0
KLE1 252311Z 32005KT 23/21 A2989 RMK A01 T02260214  RH  093%=      5-min Rain = 0
KLE1 252312Z 32005KT 23/21 A2989 RMK A01 T02260214  RH  093%=      5-min Rain = 0
KLE1 252313Z 32006KT 23/21 A2989 RMK A01 T02260214  RH  093%=      5-min Rain = 0
KLE1 252314Z 32006KT 23/21 A299 RMK A01 T02260214  RH  093%=      5-min Rain = 0
KLE1 252315Z 32006KT 23/21 A299 RMK A01 T02260214  RH  093%=      5-min Rain = 0
KLE1 252316Z 32006KT 23/21 A299 RMK A01 T02260214  RH  093%=      5-min Rain = 0
KLE1 252317Z 32006KT 23/21 A299 RMK A01 T02260214  RH  093%=      5-min Rain = 0
KLE1 252318Z 32006KT 23/21 A299 RMK A01 T02260214  RH  093%=      5-min Rain = 0
KLE1 252319Z 32006KT 23/21 A299 RMK A01 T02260214  RH  093%=      5-min Rain = 0
KLE1 252320Z 33005KT 23/21 A2989 RMK A01 T02260214  RH  093%=      5-min Rain = 0
KLE1 252321Z 34005KT 23/21 A2988 RMK A01 T02260214  RH  093%=      5-min Rain = 0
KLE1 252322Z 34006KT 23/21 A2988 RMK A01 T02260214  RH  093%=      5-min Rain = 0
KLE1 252323Z 34006KT 23/21 A2988 RMK A01 T02260214  RH  093%=      5-min Rain = 0
KLE1 252324Z 34004KT 23/21 A2988 RMK A01 T02260214  RH  093%=      5-min Rain = 0
KLE1 252325Z 32004KT 23/21 A2988 RMK A01 T02260213  RH  093%=      5-min Rain = 0
KLE1 252326Z 32005KT 23/21 A2989 RMK A01 T02260214  RH  093%=      5-min Rain = 0
KLE1 252327Z 32004KT 23/21 A2989 RMK A01 T02260213  RH  093%=      5-min Rain = 0
KLE1 252328Z 32004KT 23/21 A2989 RMK A01 T02260214  RH  093%=      5-min Rain = 0
KLE1 252329Z 32004KT 23/21 A2989 RMK A01 T02260213  RH  093%=      5-min Rain = 0
KLE1 252330Z 33004KT 23/21 A2989 RMK A01 T02260213  RH  093%=      5-min Rain = 0
KLE1 252331Z 33005KT 23/21 A2988 RMK A01 T02250213  RH  093%=      5-min Rain = 0
KLE1 252332Z 34004KT 23/21 A2988 RMK A01 T02250213  RH  093%=      5-min Rain = 0
KLE1 252333Z 34005KT 23/21 A2988 RMK A01 T02250213  RH  093%=      5-min Rain = 0
KLE1 252334Z 34005KT 23/21 A2989 RMK A01 T02250213  RH  093%=      5-min Rain = 0
KLE1 252335Z 34005KT 23/21 A2989 RMK A01 T02250213  RH  093%=      5-min Rain = 0
KLE1 252336Z 34005KT 23/21 A299 RMK A01 T02250213  RH  093%=      5-min Rain = 0
KLE1 252337Z 33006KT 23/21 A299 RMK A01 T02250213  RH  093%=      5-min Rain = 0
KLE1 252338Z 32007KT 23/21 A2991 RMK A01 T02250213  RH  093%=      5-min Rain = 0
KLE1 252339Z 32006KT 23/21 A2991 RMK A01 T02250214  RH  093%=      5-min Rain = 0
KLE1 252340Z 32006KT 23/21 A2992 RMK A01 T02250214  RH  093%=      5-min Rain = 0
KLE1 252341Z 32005KT 23/21 A2992 RMK A01 T02250214  RH  093%=      5-min Rain = 0
KLE1 252342Z 33007KT 23/21 A2991 RMK A01 T02250213  RH  093%=      5-min Rain = 0
KLE1 252343Z 34008KT 22/21 A2991 RMK A01 T02240213  RH  093%=      5-min Rain = 0
KLE1 252344Z 34009KT 23/21 A299 RMK A01 T02250213  RH  093%=      5-min Rain = 0
KLE1 252345Z 33010KT 23/21 A299 RMK A01 T02250212  RH  093%=      5-min Rain = 0
KLE1 252346Z 33010KT 22/21 A299 RMK A01 T02240210  RH  092%=      5-min Rain = 0
KLE1 252347Z 33009KT 23/21 A2991 RMK A01 T02250208  RH  090%=      5-min Rain = 0
KLE1 252348Z 32011KT 23/21 A2991 RMK A01 T02250207  RH  089%=      5-min Rain = 0
KLE1 252349Z 32011KT 23/21 A2991 RMK A01 T02260206  RH  089%=      5-min Rain = 0
KLE1 252350Z 32012KT 23/21 A2991 RMK A01 T02260205  RH  088%=      5-min Rain = 0
KLE1 252351Z 32012KT 23/21 A2991 RMK A01 T02260205  RH  088%=      5-min Rain = 0
KLE1 252352Z 32011KT 23/20 A2992 RMK A01 T02260204  RH  088%=      5-min Rain = 0
KLE1 252353Z 32010KT 23/20 A2992 RMK A01 T02260204  RH  087%=      5-min Rain = 0
KLE1 252354Z 32010KT 23/20 A2992 RMK A01 T02250204  RH  088%=      5-min Rain = 0
KLE1 252355Z 32011KT 23/20 A2992 RMK A01 T02250203  RH  087%=      5-min Rain = 0
KLE1 252356Z 32011KT 23/20 A2991 RMK A01 T02250203  RH  087%=      5-min Rain = 0
KLE1 252357Z 32010KT 23/20 A2992 RMK A01 T02250203  RH  087%=      5-min Rain = 0
KLE1 252358Z 32008KT 23/20 A2992 RMK A01 T02250203  RH  088%=      5-min Rain = 0
KLE1 252359Z 32007KT 22/20 A2991 RMK A01 T02240203  RH  088%=      5-min Rain = 0
KLE1 260000Z 33007KT 22/20 A2991 RMK A01 T02240203  RH  088%=      5-min Rain = 0
KLE1 260001Z 33007KT 22/20 A299 RMK A01 T02240203  RH  088%=      5-min Rain = 0
KLE1 260002Z 34007KT 22/20 A2989 RMK A01 T02230203  RH  088%=      5-min Rain = 0
KLE1 260003Z 35007KT 22/20 A2989 RMK A01 T02230203  RH  088%=      5-min Rain = 0
KLE1 260004Z 00008KT 22/20 A2988 RMK A01 T02230203  RH  088%=      5-min Rain = 0
KLE1 260005Z 02006KT 22/20 A2988 RMK A01 T02220203  RH  089%=      5-min Rain = 0
KLE1 260006Z 02005KT 22/20 A2988 RMK A01 T02220203  RH  089%=      5-min Rain = 0
KLE1 260007Z 01005KT 22/20 A2989 RMK A01 T02220203  RH  089%=      5-min Rain = 0
KLE1 260008Z 01005KT 22/20 A2989 RMK A01 T02220203  RH  089%=      5-min Rain = 0
KLE1 260009Z 00004KT 22/20 A299 RMK A01 T02220203  RH  089%=      5-min Rain = 0
KLE1 260010Z 35006KT 22/20 A299 RMK A01 T02220204  RH  089%=      5-min Rain = 0
KLE1 260011Z 33006KT 22/20 A2991 RMK A01 T02220204  RH  090%=      5-min Rain = 0.01
KLE1 260012Z 31008KT 22/21 A2992 RMK A01 T02220205  RH  090%=      5-min Rain = 0
KLE1 260013Z 30009KT 22/21 A2992 RMK A01 T02210205  RH  091%=      5-min Rain = 0.01
KLE1 260014Z 31009KT 22/21 A2993 RMK A01 T02200206  RH  092%=      5-min Rain = 0
KLE1 260015Z 31011KT 22/21 A2993 RMK A01 T02190206  RH  092%=      5-min Rain = 0.01
KLE1 260016Z 31013KT 22/21 A2993 RMK A01 T02180206  RH  093%=      5-min Rain = 0.01
KLE1 260017Z 32014KT 22/21 A2992 RMK A01 T02170206  RH  093%=      5-min Rain = 0.01
KLE1 260018Z 32017KT 22/21 A2992 RMK A01 T02160206  RH  094%=      5-min Rain = 0
KLE1 260019Z 32015KT 22/21 A2993 RMK A01 T02160206  RH  094%=      5-min Rain = 0.01
KLE1 260020Z 31016KT 22/21 A2993 RMK A01 T02160207  RH  095%=      5-min Rain = 0.03
KLE1 260021Z 29019KT 22/21 A2995 RMK A01 T02150208  RH  095%=      5-min Rain = 0.01
KLE1 260022Z 25028G33KT 22/21 A2997 RMK A01 T02150208  RH  096%=      5-min Rain = 0.03
KLE1 260023Z 25023G30KT 21/20 A2997 RMK A01 T02110202  RH  095%=      5-min Rain = 0.06
KLE1 260024Z 26013KT 21/20 A2995 RMK A01 T02060197  RH  094%=      5-min Rain = 0.07
KLE1 260025Z 26012KT 20/19 A2994 RMK A01 T02020192  RH  094%=      5-min Rain = 0.05
KLE1 260026Z 29011KT 20/19 A2994 RMK A01 T02000189  RH  094%=      5-min Rain = 0.01
KLE1 260027Z 27005G11KT 20/18 A2994 RMK A01 T01970184  RH  092%=      5-min Rain = 0.01
KLE1 260028Z 26002KT 20/18 A2993 RMK A01 T01960183  RH  092%=      5-min Rain = 0
KLE1 260029Z 26001KT 20/18 A2994 RMK A01 T01950183  RH  093%=      5-min Rain = 0
KLE1 260030Z 28002KT 19/18 A2995 RMK A01 T01940183  RH  093%=      5-min Rain = 0
KLE1 260031Z 28002KT 19/18 A2994 RMK A01 T01940183  RH  093%=      5-min Rain = 0
KLE1 260032Z 29006KT 19/19 A2994 RMK A01 T01940185  RH  094%=      5-min Rain = 0
KLE1 260033Z 31007KT 20/19 A2993 RMK A01 T01970189  RH  096%=      5-min Rain = 0
KLE1 260034Z 33009KT 20/19 A2993 RMK A01 T01980191  RH  096%=      5-min Rain = 0
KLE1 260035Z 32010KT 20/19 A2993 RMK A01 T01980191  RH  095%=      5-min Rain = 0.01
KLE1 260036Z 33009KT 20/19 A2993 RMK A01 T01990191  RH  095%=      5-min Rain = 0
KLE1 260037Z 32008KT 20/19 A2993 RMK A01 T01990191  RH  095%=      5-min Rain = 0
KLE1 260038Z 32008KT 20/19 A2992 RMK A01 T02000192  RH  095%=      5-min Rain = 0
KLE1 260039Z 33009KT 20/19 A2992 RMK A01 T02000191  RH  095%=      5-min Rain = 0
KLE1 260040Z 32009KT 20/19 A2992 RMK A01 T01990191  RH  095%=      5-min Rain = 0
KLE1 260041Z 33011KT 20/19 A2991 RMK A01 T01990191  RH  095%=      5-min Rain = 0.01
KLE1 260042Z 33012KT 20/19 A2991 RMK A01 T01990189  RH  094%=      5-min Rain = 0
KLE1 260043Z 32009KT 20/19 A2992 RMK A01 T01990188  RH  094%=      5-min Rain = 0
KLE1 260044Z 33004KT 20/19 A2992 RMK A01 T01990188  RH  093%=      5-min Rain = 0
KLE1 260045Z 30003KT 20/19 A2993 RMK A01 T02000188  RH  093%=      5-min Rain = 0
KLE1 260046Z 14005KT 20/19 A2994 RMK A01 T02000188  RH  093%=      5-min Rain = 0
KLE1 260047Z 16011KT 20/19 A2995 RMK A01 T02000189  RH  094%=      5-min Rain = 0.01
KLE1 260048Z 16017KT 20/19 A2996 RMK A01 T01990190  RH  094%=      5-min Rain = 0
KLE1 260049Z 16015KT 20/19 A2996 RMK A01 T01990192  RH  095%=      5-min Rain = 0
KLE1 260050Z 16015KT 20/19 A2996 RMK A01 T02000192  RH  095%=      5-min Rain = 0.01
KLE1 260051Z 17013KT 20/19 A2996 RMK A01 T02000193  RH  096%=      5-min Rain = 0.02
KLE1 260052Z 17011KT 20/19 A2996 RMK A01 T02000194  RH  096%=      5-min Rain = 0.01
KLE1 260053Z 17013KT 20/19 A2995 RMK A01 T02000193  RH  096%=      5-min Rain = 0.01
KLE1 260054Z 17013KT 20/19 A2995 RMK A01 T01990192  RH  096%=      5-min Rain = 0.01
KLE1 260055Z 17015KT 20/19 A2995 RMK A01 T01970190  RH  096%=      5-min Rain = 0.01
KLE1 260056Z 18015KT 20/19 A2995 RMK A01 T01960189  RH  096%=      5-min Rain = 0.01
KLE1 260057Z 17014KT 20/19 A2996 RMK A01 T01950188  RH  096%=      5-min Rain = 0
KLE1 260058Z 17013KT 19/19 A2996 RMK A01 T01940187  RH  096%=      5-min Rain = 0
KLE1 260059Z 17011KT 19/19 A2996 RMK A01 T01930187  RH  096%=      5-min Rain = 0
KLE1 260100Z 18011KT 19/19 A2996 RMK A01 T01930187  RH  096%=      5-min Rain = 0.01
KLE1 260101Z 18011KT 19/19 A2996 RMK A01 T01920186  RH  096%=      5-min Rain = 0
KLE1 260102Z 18011KT 19/19 A2996 RMK A01 T01920185  RH  096%=      5-min Rain = 0
KLE1 260103Z 17011KT 19/18 A2995 RMK A01 T01910184  RH  096%=      5-min Rain = 0
KLE1 260104Z 17012KT 19/18 A2995 RMK A01 T01900183  RH  096%=      5-min Rain = 0.01
KLE1 260105Z 19010KT 19/18 A2995 RMK A01 T01900182  RH  095%=      5-min Rain = 0.01
KLE1 260106Z 18010KT 19/18 A2994 RMK A01 T01910182  RH  094%=      5-min Rain = 0
KLE1 260107Z 19012KT 19/18 A2994 RMK A01 T01920182  RH  094%=      5-min Rain = 0.01
KLE1 260108Z 20007KT 19/18 A2993 RMK A01 T01910178  RH  092%=      5-min Rain = 0.01
KLE1 260109Z 18010KT 19/18 A2993 RMK A01 T01920179  RH  092%=      5-min Rain = 0.01
KLE1 260110Z 18013KT 19/18 A2994 RMK A01 T01920181  RH  093%=      5-min Rain = 0
KLE1 260111Z 18014KT 19/18 A2993 RMK A01 T01920181  RH  093%=      5-min Rain = 0
KLE1 260112Z 19014KT 19/18 A2993 RMK A01 T01910178  RH  092%=      5-min Rain = 0.02
KLE1 260113Z 19009KT 19/17 A2993 RMK A01 T01900174  RH  091%=      5-min Rain = 0
KLE1 260114Z 19010KT 19/18 A2993 RMK A01 T01900175  RH  091%=      5-min Rain = 0
KLE1 260115Z 20010KT 19/17 A2993 RMK A01 T01890173  RH  090%=      5-min Rain = 0
KLE1 260116Z 20010KT 19/17 A2993 RMK A01 T01880172  RH  091%=      5-min Rain = 0
KLE1 260117Z 19010KT 19/17 A2992 RMK A01 T01880172  RH  091%=      5-min Rain = 0
KLE1 260118Z 18008KT 19/17 A2992 RMK A01 T01870172  RH  091%=      5-min Rain = 0
KLE1 260119Z 19010KT 19/17 A2992 RMK A01 T01870173  RH  091%=      5-min Rain = 0
KLE1 260120Z 20007KT 19/17 A2992 RMK A01 T01860171  RH  091%=      5-min Rain = 0
KLE1 260121Z 20004KT 19/17 A2991 RMK A01 T01860171  RH  091%=      5-min Rain = 0
KLE1 260122Z 21008KT 19/17 A2991 RMK A01 T01860172  RH  091%=      5-min Rain = 0
KLE1 260123Z 22007KT 19/17 A2991 RMK A01 T01860170  RH  091%=      5-min Rain = 0
KLE1 260124Z 23006KT 19/17 A2991 RMK A01 T01860170  RH  091%=      5-min Rain = 0
KLE1 260125Z 24006KT 19/17 A299 RMK A01 T01860170  RH  091%=      5-min Rain = 0
KLE1 260126Z 24005KT 19/17 A299 RMK A01 T01850169  RH  090%=      5-min Rain = 0
KLE1 260127Z 25005KT 19/17 A299 RMK A01 T01850169  RH  090%=      5-min Rain = 0
KLE1 260128Z 26005KT 19/17 A299 RMK A01 T01850170  RH  091%=      5-min Rain = 0
KLE1 260129Z 24006KT 19/17 A299 RMK A01 T01850170  RH  091%=      5-min Rain = 0
KLE1 260130Z 24007KT 19/17 A299 RMK A01 T01850169  RH  090%=      5-min Rain = 0
KLE1 260131Z 24006KT 18/17 A299 RMK A01 T01840168  RH  090%=      5-min Rain = 0
KLE1 260132Z 24005KT 18/17 A299 RMK A01 T01840167  RH  090%=      5-min Rain = 0
KLE1 260133Z 23004KT 18/17 A299 RMK A01 T01840167  RH  090%=      5-min Rain = 0
KLE1 260134Z 22003KT 18/17 A299 RMK A01 T01840168  RH  091%=      5-min Rain = 0
KLE1 260135Z 20003KT 18/17 A299 RMK A01 T01830168  RH  091%=      5-min Rain = 0
KLE1 260136Z 21002KT 18/17 A299 RMK A01 T01830167  RH  091%=      5-min Rain = 0
KLE1 260137Z 21002KT 18/17 A299 RMK A01 T01830167  RH  091%=      5-min Rain = 0
KLE1 260138Z 21002KT 18/17 A299 RMK A01 T01830168  RH  091%=      5-min Rain = 0
KLE1 260139Z 20002KT 18/17 A299 RMK A01 T01830168  RH  091%=      5-min Rain = 0
KLE1 260140Z 21001KT 18/17 A2989 RMK A01 T01820168  RH  091%=      5-min Rain = 0
KLE1 260141Z 23002KT 18/17 A2989 RMK A01 T01820167  RH  091%=      5-min Rain = 0
KLE1 260142Z 24003KT 18/17 A2989 RMK A01 T01820167  RH  091%=      5-min Rain = 0
KLE1 260143Z 24003KT 18/17 A2989 RMK A01 T01820167  RH  091%=      5-min Rain = 0
KLE1 260144Z 24004KT 18/17 A2989 RMK A01 T01820166  RH  091%=      5-min Rain = 0
KLE1 260145Z 23005KT 18/17 A2989 RMK A01 T01820165  RH  090%=      5-min Rain = 0
KLE1 260146Z 24005KT 18/17 A2989 RMK A01 T01830165  RH  089%=      5-min Rain = 0
KLE1 260147Z 26005KT 18/17 A2989 RMK A01 T01840165  RH  089%=      5-min Rain = 0
KLE1 260148Z 26005KT 18/17 A2989 RMK A01 T01840165  RH  089%=      5-min Rain = 0
KLE1 260149Z 26004KT 18/17 A2989 RMK A01 T01840165  RH  089%=      5-min Rain = 0
KLE1 260150Z 24003KT 18/17 A2989 RMK A01 T01840166  RH  089%=      5-min Rain = 0
KLE1 260151Z 23003KT 18/17 A2989 RMK A01 T01830165  RH  089%=      5-min Rain = 0
KLE1 260152Z 21002KT 18/17 A2989 RMK A01 T01820166  RH  090%=      5-min Rain = 0
KLE1 260153Z 18003KT 18/17 A2989 RMK A01 T01820166  RH  090%=      5-min Rain = 0
KLE1 260154Z 18003KT 18/17 A2989 RMK A01 T01800165  RH  091%=      5-min Rain = 0
KLE1 260155Z 18002KT 18/17 A2989 RMK A01 T01790165  RH  091%=      5-min Rain = 0
KLE1 260156Z 15001KT 18/17 A2989 RMK A01 T01790165  RH  092%=      5-min Rain = 0
KLE1 260157Z 10002KT 18/17 A2989 RMK A01 T01790167  RH  093%=      5-min Rain = 0
KLE1 260158Z 09003KT 18/17 A2989 RMK A01 T01790168  RH  093%=      5-min Rain = 0
KLE1 260159Z 09003KT 18/17 A2989 RMK A01 T01800169  RH  093%=      5-min Rain = 0
KLE1 260200Z 09004KT 18/17 A2989 RMK A01 T01800169  RH  093%=      5-min Rain = 0
KLE1 260201Z 09004KT 18/17 A299 RMK A01 T01800170  RH  093%=      5-min Rain = 0
KLE1 260202Z 09003KT 18/17 A299 RMK A01 T01800170  RH  094%=      5-min Rain = 0
KLE1 260203Z 10002KT 18/17 A299 RMK A01 T01800170  RH  094%=      5-min Rain = 0
KLE1 260204Z 11002KT 18/17 A299 RMK A01 T01800170  RH  094%=      5-min Rain = 0
KLE1 260205Z 11002KT 18/17 A299 RMK A01 T01800170  RH  093%=      5-min Rain = 0
KLE1 260206Z 09004KT 18/17 A299 RMK A01 T01820170  RH  093%=      5-min Rain = 0
KLE1 260207Z 09005KT 18/17 A299 RMK A01 T01820170  RH  092%=      5-min Rain = 0
KLE1 260208Z 09005KT 18/17 A299 RMK A01 T01820171  RH  093%=      5-min Rain = 0
KLE1 260209Z 09005KT 18/17 A2989 RMK A01 T01820171  RH  093%=      5-min Rain = 0
KLE1 260210Z 09004KT 18/17 A2989 RMK A01 T01820171  RH  093%=      5-min Rain = 0
KLE1 260211Z 10004KT 18/17 A2989 RMK A01 T01810171  RH  094%=      5-min Rain = 0
KLE1 260212Z 10005KT 18/17 A299 RMK A01 T01810171  RH  094%=      5-min Rain = 0
KLE1 260213Z 10005KT 18/17 A299 RMK A01 T01800171  RH  094%=      5-min Rain = 0
KLE1 260214Z 10004KT 18/17 A299 RMK A01 T01800171  RH  094%=      5-min Rain = 0
KLE1 260215Z 09003KT 18/17 A2989 RMK A01 T01800170  RH  094%=      5-min Rain = 0
KLE1 260216Z 09003KT 18/17 A2989 RMK A01 T01800170  RH  094%=      5-min Rain = 0
KLE1 260217Z 09003KT 18/17 A2989 RMK A01 T01800170  RH  094%=      5-min Rain = 0
KLE1 260218Z 09003KT 18/17 A299 RMK A01 T01800170  RH  094%=      5-min Rain = 0
KLE1 260219Z 09004KT 18/17 A299 RMK A01 T01800170  RH  094%=      5-min Rain = 0
KLE1 260220Z 09004KT 18/17 A299 RMK A01 T01800170  RH  094%=      5-min Rain = 0
KLE1 260221Z 09004KT 18/17 A299 RMK A01 T01800170  RH  094%=      5-min Rain = 0
KLE1 260222Z 10004KT 18/17 A299 RMK A01 T01800170  RH  094%=      5-min Rain = 0
KLE1 260223Z 10004KT 18/17 A299 RMK A01 T01800170  RH  094%=      5-min Rain = 0
KLE1 260224Z 10004KT 18/17 A299 RMK A01 T01800170  RH  094%=      5-min Rain = 0
KLE1 260225Z 10004KT 18/17 A299 RMK A01 T01800170  RH  094%=      5-min Rain = 0
KLE1 260226Z 09004KT 18/17 A299 RMK A01 T01790169  RH  094%=      5-min Rain = 0
KLE1 260227Z 09004KT 18/17 A299 RMK A01 T01790169  RH  094%=      5-min Rain = 0
KLE1 260228Z 10004KT 18/17 A299 RMK A01 T01790169  RH  093%=      5-min Rain = 0
KLE1 260229Z 10004KT 18/17 A299 RMK A01 T01790167  RH  093%=      5-min Rain = 0
KLE1 260230Z 09004KT 18/17 A299 RMK A01 T01790167  RH  093%=      5-min Rain = 0
KLE1 260231Z 09004KT 18/17 A299 RMK A01 T01790167  RH  092%=      5-min Rain = 0
KLE1 260232Z 08004KT 18/17 A299 RMK A01 T01790167  RH  092%=      5-min Rain = 0
KLE1 260233Z 07004KT 18/17 A299 RMK A01 T01790167  RH  093%=      5-min Rain = 0
KLE1 260234Z 05004KT 18/17 A299 RMK A01 T01790168  RH  093%=      5-min Rain = 0
KLE1 260235Z 05004KT 18/17 A299 RMK A01 T01790169  RH  094%=      5-min Rain = 0
KLE1 260236Z 06004KT 18/17 A299 RMK A01 T01780168  RH  094%=      5-min Rain = 0
KLE1 260237Z 07004KT 18/17 A299 RMK A01 T01780168  RH  094%=      5-min Rain = 0
KLE1 260238Z 08004KT 18/17 A299 RMK A01 T01780167  RH  094%=      5-min Rain = 0
KLE1 260239Z 09004KT 18/17 A299 RMK A01 T01780167  RH  093%=      5-min Rain = 0
KLE1 260240Z 08004KT 18/17 A299 RMK A01 T01780167  RH  093%=      5-min Rain = 0
KLE1 260241Z 10004KT 18/17 A299 RMK A01 T01780167  RH  093%=      5-min Rain = 0
KLE1 260242Z 10004KT 18/17 A299 RMK A01 T01780166  RH  093%=      5-min Rain = 0
KLE1 260243Z 10004KT 18/17 A299 RMK A01 T01780167  RH  093%=      5-min Rain = 0
KLE1 260244Z 11004KT 18/17 A299 RMK A01 T01780167  RH  093%=      5-min Rain = 0
KLE1 260245Z 11004KT 18/17 A299 RMK A01 T01780168  RH  094%=      5-min Rain = 0
KLE1 260246Z 12005KT 18/17 A299 RMK A01 T01780169  RH  094%=      5-min Rain = 0
KLE1 260247Z 12005KT 18/17 A299 RMK A01 T01780169  RH  095%=      5-min Rain = 0
KLE1 260248Z 12005KT 18/17 A299 RMK A01 T01770169  RH  095%=      5-min Rain = 0
KLE1 260249Z 12004KT 18/17 A299 RMK A01 T01770169  RH  095%=      5-min Rain = 0
KLE1 260250Z 12004KT 18/17 A299 RMK A01 T01770169  RH  095%=      5-min Rain = 0
KLE1 260251Z 13004KT 18/17 A299 RMK A01 T01770169  RH  095%=      5-min Rain = 0
KLE1 260252Z 13004KT 18/17 A299 RMK A01 T01760168  RH  095%=      5-min Rain = 0
KLE1 260253Z 13004KT 18/17 A2989 RMK A01 T01760168  RH  095%=      5-min Rain = 0
KLE1 260254Z 13004KT 18/17 A2989 RMK A01 T01760167  RH  094%=      5-min Rain = 0
KLE1 260255Z 13004KT 18/17 A2989 RMK A01 T01760166  RH  094%=      5-min Rain = 0
KLE1 260256Z 13004KT 18/17 A299 RMK A01 T01760166  RH  094%=      5-min Rain = 0
KLE1 260257Z 13004KT 18/17 A2989 RMK A01 T01760166  RH  094%=      5-min Rain = 0
KLE1 260258Z 13003KT 18/17 A2989 RMK A01 T01760166  RH  094%=      5-min Rain = 0
KLE1 260259Z 13003KT 18/17 A2989 RMK A01 T01760166  RH  094%=      5-min Rain = 0
KLE1 260300Z 14003KT 18/17 A2989 RMK A01 T01760166  RH  094%=      5-min Rain = 0
KLE1 260301Z 14003KT 18/17 A2989 RMK A01 T01760166  RH  094%=      5-min Rain = 0
KLE1 260302Z 14003KT 18/17 A2989 RMK A01 T01770166  RH  094%=      5-min Rain = 0
KLE1 260303Z 12003KT 18/17 A299 RMK A01 T01770167  RH  094%=      5-min Rain = 0
KLE1 260304Z 12002KT 18/17 A299 RMK A01 T01770166  RH  093%=      5-min Rain = 0
KLE1 260305Z 11002KT 18/17 A299 RMK A01 T01770166  RH  093%=      5-min Rain = 0
KLE1 260306Z 11002KT 18/17 A299 RMK A01 T01770166  RH  093%=      5-min Rain = 0
KLE1 260307Z 10002KT 18/17 A299 RMK A01 T01770166  RH  093%=      5-min Rain = 0
KLE1 260308Z 09003KT 18/17 A299 RMK A01 T01770166  RH  094%=      5-min Rain = 0
KLE1 260309Z 10003KT 18/17 A299 RMK A01 T01770167  RH  094%=      5-min Rain = 0
KLE1 260310Z 11003KT 18/17 A299 RMK A01 T01770167  RH  094%=      5-min Rain = 0
KLE1 260311Z 11004KT 18/17 A299 RMK A01 T01760167  RH  094%=      5-min Rain = 0
KLE1 260312Z 12004KT 18/17 A299 RMK A01 T01760167  RH  095%=      5-min Rain = 0
KLE1 260313Z 12005KT 18/17 A299 RMK A01 T01750167  RH  095%=      5-min Rain = 0
KLE1 260314Z 12005KT 18/17 A299 RMK A01 T01750167  RH  095%=      5-min Rain = 0
KLE1 260315Z 11006KT 18/17 A299 RMK A01 T01750167  RH  095%=      5-min Rain = 0
KLE1 260316Z 11006KT 18/17 A299 RMK A01 T01750168  RH  095%=      5-min Rain = 0
KLE1 260317Z 12005KT 18/17 A299 RMK A01 T01750167  RH  095%=      5-min Rain = 0
KLE1 260318Z 12005KT 18/17 A299 RMK A01 T01750168  RH  095%=      5-min Rain = 0
KLE1 260319Z 12005KT 18/17 A2991 RMK A01 T01750167  RH  095%=      5-min Rain = 0
KLE1 260320Z 11005KT 18/17 A2991 RMK A01 T01750167  RH  095%=      5-min Rain = 0
KLE1 260321Z 11005KT 18/17 A2991 RMK A01 T01750167  RH  095%=      5-min Rain = 0
KLE1 260322Z 11004KT 18/17 A2991 RMK A01 T01750167  RH  095%=      5-min Rain = 0
KLE1 260323Z 11004KT 18/17 A2991 RMK A01 T01750167  RH  095%=      5-min Rain = 0
KLE1 260324Z 10005KT 18/17 A2991 RMK A01 T01760167  RH  094%=      5-min Rain = 0
KLE1 260325Z 10004KT 18/17 A2991 RMK A01 T01750166  RH  094%=      5-min Rain = 0
KLE1 260326Z 10004KT 18/17 A2992 RMK A01 T01760167  RH  094%=      5-min Rain = 0
KLE1 260327Z 09004KT 18/17 A2992 RMK A01 T01750166  RH  094%=      5-min Rain = 0
KLE1 260328Z 09004KT 18/17 A2992 RMK A01 T01760166  RH  094%=      5-min Rain = 0
KLE1 260329Z 09004KT 18/17 A2992 RMK A01 T01760166  RH  094%=      5-min Rain = 0
KLE1 260330Z 09004KT 18/17 A2992 RMK A01 T01760166  RH  094%=      5-min Rain = 0
KLE1 260331Z 09004KT 18/17 A2992 RMK A01 T01760166  RH  094%=      5-min Rain = 0
KLE1 260332Z 08004KT 18/17 A2992 RMK A01 T01760165  RH  094%=      5-min Rain = 0
KLE1 260333Z 08004KT 18/17 A2992 RMK A01 T01760165  RH  094%=      5-min Rain = 0
KLE1 260334Z 08004KT 18/17 A2992 RMK A01 T01760165  RH  093%=      5-min Rain = 0
KLE1 260335Z 07004KT 18/17 A2992 RMK A01 T01760165  RH  093%=      5-min Rain = 0
KLE1 260336Z 07004KT 18/17 A2993 RMK A01 T01760165  RH  093%=      5-min Rain = 0
KLE1 260337Z 07005KT 18/17 A2993 RMK A01 T01770166  RH  093%=      5-min Rain = 0
KLE1 260338Z 06005KT 18/17 A2993 RMK A01 T01770165  RH  093%=      5-min Rain = 0
KLE1 260339Z 06005KT 18/17 A2993 RMK A01 T01770165  RH  093%=      5-min Rain = 0
KLE1 260340Z 07005KT 18/17 A2993 RMK A01 T01770165  RH  093%=      5-min Rain = 0
KLE1 260341Z 06005KT 18/17 A2993 RMK A01 T01770165  RH  093%=      5-min Rain = 0
KLE1 260342Z 06006KT 18/17 A2993 RMK A01 T01760165  RH  093%=      5-min Rain = 0
KLE1 260343Z 07006KT 18/17 A2993 RMK A01 T01760165  RH  093%=      5-min Rain = 0
KLE1 260344Z 07006KT 18/17 A2993 RMK A01 T01760165  RH  093%=      5-min Rain = 0
KLE1 260345Z 07006KT 18/17 A2993 RMK A01 T01760165  RH  093%=      5-min Rain = 0
KLE1 260346Z 07006KT 18/17 A2993 RMK A01 T01760165  RH  093%=      5-min Rain = 0
KLE1 260347Z 08006KT 18/16 A2993 RMK A01 T01760164  RH  093%=      5-min Rain = 0
KLE1 260348Z 08006KT 18/17 A2993 RMK A01 T01770165  RH  093%=      5-min Rain = 0
KLE1 260349Z 08007KT 18/17 A2993 RMK A01 T01770165  RH  093%=      5-min Rain = 0
KLE1 260350Z 08007KT 18/17 A2993 RMK A01 T01770166  RH  093%=      5-min Rain = 0
KLE1 260351Z 08007KT 18/17 A2993 RMK A01 T01770166  RH  093%=      5-min Rain = 0
KLE1 260352Z 08007KT 18/17 A2993 RMK A01 T01770166  RH  093%=      5-min Rain = 0
KLE1 260353Z 08008KT 18/17 A2993 RMK A01 T01770166  RH  093%=      5-min Rain = 0
KLE1 260354Z 08008KT 18/17 A2993 RMK A01 T01770165  RH  093%=      5-min Rain = 0
KLE1 260355Z 08008KT 18/17 A2993 RMK A01 T01770165  RH  093%=      5-min Rain = 0
KLE1 260356Z 08008KT 18/17 A2993 RMK A01 T01770166  RH  093%=      5-min Rain = 0
KLE1 260357Z 08008KT 18/17 A2993 RMK A01 T01770166  RH  093%=      5-min Rain = 0
KLE1 260358Z 08008KT 18/17 A2993 RMK A01 T01780166  RH  093%=      5-min Rain = 0
KLE1 260359Z 08008KT 18/17 A2993 RMK A01 T01780166  RH  093%=      5-min Rain = 0
KLE1 260400Z 08008KT 18/17 A2993 RMK A01 T01780166  RH  092%=      5-min Rain = 0
KLE1 260401Z 08008KT 18/17 A2993 RMK A01 T01790166  RH  092%=      5-min Rain = 0
KLE1 260402Z 08007KT 18/17 A2993 RMK A01 T01790166  RH  092%=      5-min Rain = 0
KLE1 260403Z 08007KT 18/17 A2993 RMK A01 T01790166  RH  092%=      5-min Rain = 0
KLE1 260404Z 08008KT 18/17 A2993 RMK A01 T01790166  RH  092%=      5-min Rain = 0
KLE1 260405Z 08008KT 18/17 A2993 RMK A01 T01790166  RH  092%=      5-min Rain = 0
KLE1 260406Z 08008KT 18/17 A2993 RMK A01 T01780166  RH  093%=      5-min Rain = 0
KLE1 260407Z 08008KT 18/17 A2993 RMK A01 T01780166  RH  093%=      5-min Rain = 0
KLE1 260408Z 08008KT 18/17 A2993 RMK A01 T01780167  RH  093%=      5-min Rain = 0
KLE1 260409Z 08009KT 18/17 A2993 RMK A01 T01780167  RH  093%=      5-min Rain = 0
KLE1 260410Z 08008KT 18/17 A2993 RMK A01 T01780167  RH  093%=      5-min Rain = 0
KLE1 260411Z 08008KT 18/17 A2993 RMK A01 T01770167  RH  093%=      5-min Rain = 0
KLE1 260412Z 08008KT 18/17 A2993 RMK A01 T01770167  RH  093%=      5-min Rain = 0
KLE1 260413Z 08008KT 18/17 A2993 RMK A01 T01780167  RH  094%=      5-min Rain = 0
KLE1 260414Z 08008KT 18/17 A2993 RMK A01 T01770167  RH  094%=      5-min Rain = 0
KLE1 260415Z 08009KT 18/17 A2993 RMK A01 T01780167  RH  093%=      5-min Rain = 0
KLE1 260416Z 08009KT 18/17 A2993 RMK A01 T01780167  RH  093%=      5-min Rain = 0
KLE1 260417Z 08009KT 18/17 A2993 RMK A01 T01780167  RH  093%=      5-min Rain = 0
KLE1 260418Z 08008KT 18/17 A2993 RMK A01 T01770166  RH  093%=      5-min Rain = 0
KLE1 260419Z 08008KT 18/17 A2993 RMK A01 T01770166  RH  093%=      5-min Rain = 0
KLE1 260420Z 08008KT 18/17 A2993 RMK A01 T01770166  RH  093%=      5-min Rain = 0
KLE1 260421Z 08009KT 18/17 A2993 RMK A01 T01770166  RH  093%=      5-min Rain = 0
KLE1 260422Z 08009KT 18/17 A2993 RMK A01 T01770166  RH  093%=      5-min Rain = 0
KLE1 260423Z 08009KT 18/17 A2993 RMK A01 T01770166  RH  093%=      5-min Rain = 0
KLE1 260424Z 08009KT 18/17 A2993 RMK A01 T01780166  RH  093%=      5-min Rain = 0
KLE1 260425Z 08009KT 18/17 A2993 RMK A01 T01770166  RH  093%=      5-min Rain = 0
KLE1 260426Z 08009KT 18/17 A2993 RMK A01 T01770165  RH  093%=      5-min Rain = 0
KLE1 260427Z 08008KT 18/17 A2992 RMK A01 T01780165  RH  092%=      5-min Rain = 0
KLE1 260428Z 08008KT 18/17 A2992 RMK A01 T01780165  RH  092%=      5-min Rain = 0
KLE1 260429Z 08008KT 18/17 A2992 RMK A01 T01790165  RH  092%=      5-min Rain = 0
KLE1 260430Z 08008KT 18/17 A2992 RMK A01 T01790166  RH  092%=      5-min Rain = 0
KLE1 260431Z 08008KT 18/17 A2992 RMK A01 T01790166  RH  092%=      5-min Rain = 0
KLE1 260432Z 08008KT 18/17 A2992 RMK A01 T01780165  RH  092%=      5-min Rain = 0
KLE1 260433Z 08008KT 18/17 A2992 RMK A01 T01780165  RH  092%=      5-min Rain = 0
KLE1 260434Z 08007KT 18/17 A2992 RMK A01 T01780165  RH  092%=      5-min Rain = 0
KLE1 260435Z 08007KT 18/17 A2992 RMK A01 T01780165  RH  092%=      5-min Rain = 0
KLE1 260436Z 08008KT 18/17 A2992 RMK A01 T01790165  RH  092%=      5-min Rain = 0
KLE1 260437Z 08008KT 18/17 A2992 RMK A01 T01790165  RH  092%=      5-min Rain = 0
KLE1 260438Z 08008KT 18/17 A2992 RMK A01 T01790165  RH  091%=      5-min Rain = 0
KLE1 260439Z 08008KT 18/17 A2992 RMK A01 T01800165  RH  091%=      5-min Rain = 0
KLE1 260440Z 08008KT 18/17 A2992 RMK A01 T01800166  RH  091%=      5-min Rain = 0
KLE1 260441Z 08008KT 18/17 A2992 RMK A01 T01800166  RH  091%=      5-min Rain = 0
KLE1 260442Z 08008KT 18/17 A2992 RMK A01 T01800165  RH  091%=      5-min Rain = 0
KLE1 260443Z 08008KT 18/17 A2992 RMK A01 T01800165  RH  091%=      5-min Rain = 0
KLE1 260444Z 09009KT 18/17 A2992 RMK A01 T01810166  RH  091%=      5-min Rain = 0
KLE1 260445Z 09009KT 18/17 A2992 RMK A01 T01810166  RH  091%=      5-min Rain = 0
KLE1 260446Z 09009KT 18/17 A2992 RMK A01 T01810166  RH  091%=      5-min Rain = 0
KLE1 260447Z 09010KT 18/17 A2992 RMK A01 T01820166  RH  090%=      5-min Rain = 0
KLE1 260448Z 09010KT 18/17 A2992 RMK A01 T01820166  RH  090%=      5-min Rain = 0
KLE1 260449Z 09010KT 18/17 A2992 RMK A01 T01820166  RH  090%=      5-min Rain = 0
KLE1 260450Z 09009KT 18/17 A2992 RMK A01 T01820166  RH  090%=      5-min Rain = 0
KLE1 260451Z 10010KT 18/17 A2992 RMK A01 T01820166  RH  090%=      5-min Rain = 0
KLE1 260452Z 10010KT 18/17 A2992 RMK A01 T01830166  RH  090%=      5-min Rain = 0
KLE1 260453Z 10009KT 18/17 A2992 RMK A01 T01830167  RH  090%=      5-min Rain = 0
KLE1 260454Z 10010KT 18/17 A2992 RMK A01 T01830166  RH  090%=      5-min Rain = 0
KLE1 260455Z 10010KT 18/17 A2992 RMK A01 T01830166  RH  090%=      5-min Rain = 0
KLE1 260456Z 10011KT 18/17 A2992 RMK A01 T01830166  RH  090%=      5-min Rain = 0
KLE1 260457Z 10010KT 18/17 A2992 RMK A01 T01830166  RH  090%=      5-min Rain = 0
KLE1 260458Z 10010KT 18/17 A2992 RMK A01 T01830166  RH  090%=      5-min Rain = 0
KLE1 260459Z 10011KT 18/17 A2992 RMK A01 T01830166  RH  090%=      5-min Rain = 0

Page generated in 0.0327 seconds.